GEFSCGP_500_meanwind_084.txt.gz
Wind_Speed
9 8 9 11 12 12 13 13 13 14 14 14 15 17 18 16 13 10 7 3 4 7 11 13 13 13 13 12 11 10 8 7 6 5 5 5 5 6 6 7 7 8 8 9
9 8 10 11 12 13 14 14 13 13 13 13 13 15 16 14 11 8 5 0 6 9 12 14 13 12 11 11 10 9 8 7 6 5 5 5 5 5 6 6 7 7 8 9
10 9 10 11 12 13 13 14 14 13 12 12 12 13 14 12 11 8 4 0 5 8 11 12 11 11 11 10 9 9 8 7 6 5 5 4 4 5 5 5 6 7 8 8
10 10 10 11 13 14 14 13 14 13 13 13 13 12 11 10 9 8 4 2 5 7 9 10 10 10 10 10 9 9 8 7 6 6 5 4 4 4 4 5 5 6 7 8
10 10 10 11 12 14 14 14 14 13 12 13 11 10 9 8 7 6 5 2 4 6 8 9 9 10 10 10 9 8 8 7 6 7 6 4 4 4 4 4 5 6 7 8
11 11 11 11 12 13 14 14 13 12 11 10 9 8 8 7 5 5 3 2 3 4 6 8 9 9 9 9 9 8 7 7 7 6 6 5 5 4 4 4 5 6 7 8
11 11 12 12 13 13 14 14 14 12 10 10 9 8 7 6 5 3 2 1 1 3 5 7 8 9 9 9 9 8 8 8 7 6 6 6 5 5 5 5 6 6 7 8
11 9 12 13 14 14 13 14 14 13 12 10 9 9 7 5 5 4 3 3 3 3 5 6 8 9 9 9 9 9 8 8 7 7 7 7 6 6 6 6 7 7 8 9
14 11 13 14 15 15 14 14 15 15 13 10 9 8 7 6 6 6 5 5 5 5 6 7 8 9 10 9 9 10 9 9 9 8 8 7 7 7 7 7 8 9 10 11
16 15 13 15 15 15 14 15 16 15 14 11 9 8 8 8 8 8 8 7 7 7 7 8 8 9 10 10 10 10 11 11 10 10 9 9 8 8 9 9 10 11 12 14
17 17 15 15 14 15 15 15 15 16 15 13 12 9 8 9 9 9 9 9 9 8 8 9 9 10 11 11 12 12 12 12 12 11 11 11 11 11 11 12 12 13 14 16
16 16 14 13 14 15 16 16 16 17 16 15 14 10 9 10 9 9 10 10 11 10 10 11 11 11 12 13 13 13 13 13 13 13 13 13 13 13 14 14 15 16 17 18
16 13 12 12 13 15 16 17 17 18 18 16 15 12 11 11 11 10 11 12 12 13 13 13 13 13 14 15 15 15 16 16 15 15 15 16 16 16 16 17 18 19 19 20
15 14 13 14 15 16 16 17 18 18 18 17 15 14 13 14 13 12 12 13 13 13 14 14 14 15 15 16 17 17 17 17 17 17 17 18 19 19 19 20 21 22 22 23
16 16 16 15 17 17 16 17 19 19 18 18 16 16 15 15 15 15 15 15 14 14 15 15 15 15 16 17 17 18 18 18 18 19 19 20 20 20 21 22 23 24 25 26
18 18 18 17 18 19 18 18 20 20 20 18 17 16 17 18 16 16 16 16 16 16 16 17 17 17 17 17 18 18 18 19 20 20 21 21 22 22 23 24 25 27 28 29
19 19 19 18 20 22 21 20 21 22 21 20 19 17 17 18 18 18 18 18 18 17 17 17 18 18 18 19 19 19 19 20 21 21 22 23 24 24 25 26 28 29 30 31
20 20 20 19 20 22 20 20 21 21 21 21 20 19 20 21 21 21 21 21 21 20 19 20 20 21 21 20 20 20 20 21 22 23 24 25 26 27 28 29 30 31 33 33
20 20 20 20 20 19 19 20 21 21 21 21 20 20 21 21 21 21 21 22 22 22 22 22 22 22 21 22 22 22 22 23 24 25 26 27 28 29 30 31 33 34 35 36
20 20 19 19 20 20 19 20 21 22 21 21 22 22 22 23 23 23 23 23 23 24 23 24 24 24 24 24 24 24 24 25 26 27 28 29 30 31 32 34 35 37 38 38
19 19 19 19 20 20 20 21 21 22 22 22 23 22 22 23 23 24 24 24 25 26 25 26 27 27 26 26 26 26 26 27 29 29 30 31 32 34 35 37 38 39 40 41
19 20 20 21 21 20 21 21 21 21 21 21 21 22 22 23 23 23 23 24 25 26 26 26 27 27 27 28 28 28 29 29 30 31 32 34 35 37 38 39 41 42 42 43
21 21 22 22 22 22 22 22 22 22 21 21 21 21 22 22 23 23 23 24 25 26 26 26 27 26 27 29 29 30 31 32 33 34 34 36 38 39 40 41 43 44 45 45
23 23 24 24 23 23 23 23 23 22 22 22 22 21 20 21 22 23 24 24 23 24 26 26 26 27 29 30 30 32 33 35 35 36 37 39 40 41 43 44 45 46 47 48
24 24 24 24 24 24 22 23 23 23 22 23 22 21 19 19 21 22 23 22 23 24 25 27 27 28 29 30 32 33 34 36 38 39 40 41 43 44 45 47 48 49 50 51
24 25 25 24 24 24 23 22 23 23 23 23 22 21 21 21 22 22 23 24 24 25 25 26 27 29 31 32 34 35 37 38 40 41 42 44 45 46 48 49 50 51 52 53

GEFSCGP_500_meanwind_090.txt.gz
Wind_Speed
10 9 8 8 9 9 10 11 13 15 16 16 16 17 18 18 16 14 11 9 5 6 8 13 16 18 19 20 21 20 18 16 14 12 10 8 6 4 3 2 1 1 0 1
10 9 10 10 10 10 12 13 13 15 15 15 16 16 16 15 14 12 10 8 3 4 7 9 13 15 17 18 19 18 16 16 14 12 10 8 6 4 3 2 2 1 0 1
11 11 11 10 10 11 13 13 13 15 15 15 15 15 14 13 12 11 9 7 3 2 6 9 10 11 14 16 16 17 16 15 13 11 10 8 7 5 4 3 2 2 1 1
12 12 12 11 11 12 12 14 14 14 14 14 14 13 13 12 11 10 8 6 4 1 4 7 9 11 13 14 14 15 14 14 13 11 10 8 7 6 5 4 3 2 1 1
13 13 13 12 13 13 13 14 13 13 12 13 13 11 12 11 10 8 7 5 3 2 2 5 8 9 10 12 12 13 13 13 12 11 9 9 7 6 6 4 4 3 3 3
14 14 14 14 13 14 14 13 13 12 11 11 12 10 10 10 9 7 5 4 3 2 2 4 6 8 9 10 11 12 12 12 11 11 10 9 8 7 6 5 5 5 4 4
14 15 14 14 13 13 12 12 11 10 10 11 12 10 9 9 7 6 4 3 2 1 1 4 5 7 8 9 11 11 11 11 11 11 10 9 9 8 7 7 6 6 6 6
15 14 15 15 14 13 12 12 10 10 10 10 11 9 10 9 7 6 5 3 2 1 2 4 6 7 8 9 10 11 11 12 11 11 10 10 9 9 8 8 8 8 8 8
15 15 17 16 15 15 15 13 12 12 11 10 10 11 11 10 8 7 7 5 4 4 4 5 6 8 9 10 11 12 12 12 12 11 11 11 11 10 10 10 10 10 10 10
17 17 18 17 17 17 17 16 14 12 11 10 10 10 10 11 9 8 7 7 6 6 6 6 7 8 9 10 11 12 12 13 13 12 12 13 13 12 12 13 13 13 13 13
19 18 19 19 20 20 18 17 15 13 13 11 9 10 12 11 10 9 9 8 8 7 7 8 8 9 9 10 12 13 13 13 13 14 14 14 15 15 15 15 16 16 16 16
21 20 19 20 20 19 19 17 15 14 13 12 10 10 13 11 11 10 10 10 9 9 9 10 10 11 11 12 13 13 14 15 15 16 16 16 17 18 18 19 19 19 19 20
23 22 20 20 20 18 17 15 15 14 14 12 10 11 14 12 12 12 11 11 11 11 11 11 11 12 12 13 14 15 16 16 17 18 18 19 20 21 21 22 22 22 23 22
23 23 21 18 18 17 15 15 15 14 14 13 12 13 15 15 14 13 13 13 12 12 13 13 13 14 13 14 15 16 17 18 19 19 20 21 22 23 24 24 25 25 25 24
22 22 21 20 20 19 17 16 15 14 14 15 14 14 15 16 15 15 15 15 15 15 15 15 15 15 16 16 17 18 19 20 21 21 22 23 24 25 25 26 26 27 26 26
24 22 20 20 19 18 18 18 17 17 17 16 16 16 18 18 18 17 17 17 17 17 17 17 17 17 17 18 18 19 20 21 22 23 24 25 25 26 27 27 28 28 28 28
23 22 21 20 20 20 19 18 19 19 17 17 18 19 19 19 20 20 20 19 19 19 19 20 20 20 20 20 21 22 22 23 24 25 26 26 27 27 28 28 29 29 29 29
23 22 21 20 21 21 20 20 19 19 19 19 20 20 20 20 20 21 21 22 22 22 22 23 23 23 23 23 23 24 24 25 25 26 27 28 28 28 29 29 30 30 31 31
23 21 21 20 20 20 21 20 20 20 20 20 21 21 20 21 22 23 23 23 24 24 24 25 26 26 26 26 27 27 28 28 28 28 29 28 29 29 30 31 31 32 32 33
22 21 20 20 20 20 21 19 19 19 20 19 20 20 21 22 24 24 24 24 25 26 27 27 27 28 29 30 30 31 31 31 31 31 31 31 31 31 32 33 34 34 34 34
22 21 21 20 20 20 22 19 19 19 20 19 20 21 21 22 24 25 26 27 27 28 29 29 30 30 31 32 33 33 34 34 34 34 34 34 35 35 35 35 35 36 36 36
22 22 21 20 20 21 21 20 20 20 20 20 21 21 22 22 23 24 25 27 28 29 30 30 31 32 33 34 34 34 35 35 36 36 36 37 37 37 37 37 37 38 38 39
23 22 21 21 21 22 21 21 21 22 22 21 21 22 22 23 23 24 25 27 27 28 28 30 32 32 33 32 32 34 35 35 35 36 37 38 38 39 38 39 39 40 40 41
23 22 22 22 23 23 23 23 23 23 23 23 23 23 23 24 24 25 26 28 28 29 30 30 31 32 32 33 33 33 35 35 35 36 37 38 38 39 39 40 41 43 44 44
20 20 21 22 23 23 23 23 24 24 24 24 24 25 25 25 25 25 25 26 27 28 28 29 30 31 32 33 34 35 34 35 37 38 38 38 39 39 41 42 43 44 45 46
20 21 22 22 22 22 23 23 24 24 24 25 25 25 25 26 26 27 27 27 28 28 29 30 31 32 33 34 35 35 35 36 36 37 37 38 39 40 42 43 44 45 47 48

GEFSCGP_500_meanwind_096.txt.gz
Wind_Speed
12 9 7 5 7 10 11 11 12 15 16 19 18 18 19 19 21 22 21 19 17 13 9 8 10 12 14 16 17 18 19 17 15 14 13 11 9 8 7 6 4 4 3 2
12 8 6 6 11 11 11 12 14 15 17 17 16 17 18 18 19 21 20 18 16 13 9 6 8 10 13 14 16 17 18 17 15 14 13 11 9 8 7 5 5 4 3 2
12 8 8 11 13 12 12 13 15 16 14 13 15 17 17 16 18 19 18 17 15 12 8 4 4 8 10 12 14 16 16 15 13 13 12 11 9 9 7 6 5 4 3 3
12 11 12 15 15 12 14 15 15 14 13 12 13 17 18 16 17 18 17 15 14 12 8 4 1 4 6 9 12 14 14 14 13 13 12 11 10 9 8 7 6 5 4 3
12 11 14 16 16 15 15 15 14 13 14 14 14 12 15 16 17 18 17 14 13 11 8 4 2 0 3 5 9 12 12 12 12 12 12 11 10 9 8 7 7 6 5 4
15 15 16 17 17 16 14 13 12 14 16 16 12 9 11 15 17 18 15 13 11 9 8 5 2 1 2 4 7 9 10 11 11 11 11 11 11 10 9 8 8 7 6 5
13 15 17 18 16 14 14 13 15 17 18 15 13 7 9 14 16 16 14 12 9 8 6 5 2 1 2 4 5 7 8 10 10 10 11 11 10 9 9 9 8 8 7 6
14 15 14 14 15 15 15 13 16 18 17 17 16 12 8 12 14 14 13 11 9 7 6 4 2 1 1 3 5 6 7 8 9 9 10 10 10 10 10 10 10 9 9 8
16 15 14 16 15 16 16 15 15 18 16 17 17 13 9 12 12 12 12 11 10 7 6 4 3 2 2 3 4 5 7 8 9 10 10 11 11 11 11 11 11 11 10 10
18 18 17 17 16 18 18 17 16 17 18 16 16 15 15 12 12 12 13 12 10 8 6 5 4 4 5 5 6 7 8 9 11 11 11 12 13 13 13 13 12 12 12 12
21 22 21 19 19 18 19 18 17 17 17 17 17 18 17 13 13 13 13 12 10 9 8 7 6 5 6 6 7 8 9 10 11 12 13 13 14 15 15 15 15 15 15 15
25 26 25 24 23 22 22 20 18 19 17 17 16 19 16 13 11 12 13 13 11 10 9 8 8 7 7 8 8 9 10 11 12 13 14 14 15 16 16 17 17 17 17 18
29 30 28 26 26 25 24 23 20 19 17 17 17 19 19 16 10 12 14 13 13 11 11 11 10 9 9 9 10 10 11 12 13 14 15 16 17 18 18 18 19 19 20 20
34 33 32 28 27 27 25 23 21 20 18 18 18 19 20 17 16 16 13 13 15 14 13 14 13 12 11 11 11 11 12 13 14 15 16 18 19 19 20 21 21 22 22 22
35 34 32 30 29 27 24 21 17 18 17 17 19 20 22 21 20 17 17 17 17 16 16 15 15 14 14 13 13 13 14 14 15 16 18 19 20 21 22 23 24 24 24 24
34 33 32 31 28 25 22 19 17 17 17 18 21 23 25 25 21 20 20 19 18 18 18 18 17 16 16 16 16 16 16 16 17 18 19 20 21 22 23 24 24 25 26 26
35 34 33 31 28 27 24 20 19 19 19 20 22 24 28 26 24 21 20 20 20 20 20 20 19 19 19 19 19 18 18 18 18 19 20 21 21 22 24 24 25 26 26 27
35 34 33 31 31 28 23 23 22 21 22 21 23 26 28 27 25 24 23 23 22 22 22 22 22 23 22 21 21 21 22 21 21 22 22 23 23 23 24 24 24 26 27 28
33 33 32 31 30 29 27 27 26 23 24 26 27 27 27 25 25 24 24 23 23 23 24 24 25 25 25 24 24 25 25 25 26 26 25 26 27 28 28 28 27 28 29 29
31 31 29 30 30 28 29 28 26 24 23 23 24 26 27 25 26 25 24 24 23 24 25 26 26 27 27 27 27 28 29 29 29 29 29 30 31 31 31 31 31 31 32 31
30 31 31 30 28 29 29 26 24 24 23 22 23 23 23 25 25 25 24 24 24 24 25 26 28 28 29 29 30 32 32 32 32 33 33 33 33 34 33 32 33 34 35 35
30 30 29 29 30 31 30 25 23 23 23 22 24 24 23 23 24 25 25 25 25 25 25 27 27 28 30 31 31 32 33 33 34 35 35 35 34 34 35 36 37 38 38 39
30 29 28 29 31 30 27 26 25 23 22 22 24 26 26 25 25 25 26 25 26 26 27 27 28 29 30 31 32 32 34 35 35 35 37 37 36 35 35 36 37 38 39 39
23 22 24 26 27 26 26 25 26 25 24 25 26 27 26 26 26 26 26 26 27 28 28 29 29 29 30 31 32 33 33 34 35 36 35 35 36 36 37 38 38 39 39 39
15 19 20 21 21 22 22 24 25 25 25 26 26 26 26 27 27 27 27 27 28 29 29 29 30 31 31 31 32 33 34 34 33 33 33 34 35 35 35 36 38 38 38 39
16 16 18 18 19 21 22 23 24 23 24 25 25 25 26 26 26 27 28 28 29 29 29 30 30 31 32 32 32 33 34 33 33 33 33 34 34 35 35 35 36 37 37 39

GEFSCGP_500_meanwind_102.txt.gz
Wind_Speed
15 13 11 11 10 10 9 8 9 12 15 18 19 19 19 17 18 20 19 19 18 15 14 10 5 3 4 8 10 13 16 17 18 16 15 14 14 12 11 10 10 9 8 7
15 12 13 14 12 10 9 9 10 13 15 19 20 20 19 18 17 17 16 16 16 15 13 8 4 1 3 6 11 14 15 17 17 15 15 15 15 13 12 11 11 10 10 9
14 13 16 15 13 11 8 10 12 14 17 19 21 20 19 19 16 13 13 14 14 13 12 9 5 1 2 7 11 13 15 16 17 15 15 15 14 13 12 12 12 11 10 9
14 16 18 17 15 12 10 10 13 15 17 19 20 20 19 17 13 10 10 10 10 10 11 9 5 2 2 6 9 13 15 16 17 16 16 15 15 14 14 14 13 12 11 9
13 17 19 18 15 13 13 13 15 17 18 19 19 20 19 17 13 9 7 7 8 8 9 7 5 2 3 6 9 12 14 15 16 17 16 16 16 16 15 14 13 12 11 10
14 17 18 17 16 15 13 14 15 17 17 19 18 20 16 13 8 4 3 5 6 7 7 6 5 3 3 6 9 11 13 14 15 16 16 16 16 16 15 15 13 12 11 11
16 17 17 17 16 14 14 16 17 17 17 18 18 18 14 8 4 2 2 4 5 6 6 5 4 2 3 5 8 10 12 13 14 16 16 16 16 16 16 15 14 13 12 12
16 16 17 18 16 13 13 16 18 19 19 18 18 17 14 10 6 3 3 3 5 5 5 5 4 2 3 5 7 9 11 12 14 14 15 16 17 16 16 15 15 14 13 13
16 15 16 18 17 16 14 15 16 19 20 20 19 16 12 10 8 5 4 4 4 4 4 4 3 2 2 4 6 7 9 11 12 13 14 16 16 16 16 15 15 15 15 14
21 19 17 19 20 18 17 16 18 21 21 21 19 15 14 11 9 7 4 4 3 2 2 2 2 1 1 3 4 6 8 9 11 13 13 14 16 15 16 16 16 16 15 15
27 24 19 21 23 21 19 19 21 21 21 22 20 17 14 13 11 8 6 5 3 1 0 1 0 0 1 2 4 5 6 7 9 12 12 14 16 15 16 17 17 17 17 17
31 29 26 24 23 23 23 22 23 22 23 23 23 20 16 14 12 10 6 4 4 2 2 2 2 2 2 3 4 5 7 8 9 11 12 14 16 16 17 17 17 18 18 19
35 35 32 28 26 27 26 25 24 24 25 24 24 22 18 16 12 11 8 6 5 4 4 4 4 4 5 5 5 6 8 9 10 12 13 14 16 17 19 19 19 19 20 21
40 39 37 34 30 29 29 28 27 27 27 26 24 22 20 18 15 12 9 7 7 5 5 5 5 6 6 7 7 8 9 10 11 12 13 15 16 18 19 20 21 21 22 22
43 42 40 38 34 32 32 31 30 28 26 25 23 23 20 18 16 14 12 9 9 9 8 8 8 8 8 9 9 9 10 11 12 13 14 16 17 19 20 21 22 23 23 23
44 45 44 41 38 36 34 33 31 30 28 26 24 23 21 18 16 15 14 11 11 10 10 10 10 10 10 11 11 12 12 13 14 15 16 17 18 20 21 22 22 23 25 25
45 46 45 43 40 39 38 35 33 31 30 28 26 23 21 20 18 17 15 13 12 12 11 11 12 12 13 13 13 14 15 16 16 17 17 19 20 21 23 23 24 25 26 27
43 45 46 44 42 42 38 36 34 33 31 29 27 25 22 20 19 18 17 15 13 13 13 14 14 14 15 16 16 17 17 18 18 19 20 21 22 22 23 24 25 27 28 29
39 41 43 43 43 43 39 36 34 33 31 27 25 24 22 21 20 19 18 16 15 15 15 15 16 16 17 18 18 19 20 21 21 20 22 22 23 24 25 25 25 27 28 29
32 37 39 39 39 39 37 34 33 30 28 27 26 24 25 24 22 19 18 17 16 16 16 17 17 18 18 19 19 21 22 23 23 23 24 25 25 27 27 27 28 28 30 31
27 32 36 38 38 37 33 31 30 30 27 26 24 24 24 25 23 20 17 16 16 16 17 17 19 20 21 21 21 22 23 24 25 27 28 29 29 29 30 30 30 31 32 32
24 27 32 36 36 34 30 29 29 28 27 25 25 24 24 24 22 20 18 16 16 16 17 18 19 21 21 22 23 24 25 25 27 28 29 30 31 33 33 32 32 32 33 34
19 22 25 28 29 29 28 29 28 27 27 25 24 23 22 20 18 18 18 18 18 18 19 20 20 21 22 23 24 24 25 27 27 28 29 31 32 33 32 33 34 34 35 34
15 17 20 22 22 22 22 23 24 24 25 24 23 21 20 19 18 17 18 19 20 20 20 21 21 22 23 24 25 26 27 28 29 30 31 32 33 33 34 34 34 35 35 36
11 12 12 15 18 19 19 19 20 21 21 20 22 21 18 16 18 18 18 19 20 21 21 21 22 23 23 24 25 27 28 29 30 31 32 33 33 33 34 35 35 36 36 37
8 8 8 9 12 13 13 14 14 15 16 17 16 15 14 16 17 17 18 19 20 21 22 22 23 24 25 26 27 28 29 29 30 30 31 32 33 33 34 34 36 36 37 38

GEFSCGP_500_meanwind_108.txt.gz
Wind_Speed
19 18 17 18 18 17 17 17 16 17 17 16 15 15 16 17 19 19 18 19 18 18 16 12 8 6 6 7 10 13 15 17 18 19 18 18 17 16 14 13 12 11 10 9
19 17 20 21 19 18 18 18 18 18 18 17 15 16 17 18 18 17 17 17 18 18 15 11 7 5 5 7 9 14 17 17 17 19 19 18 17 16 15 14 13 12 11 9
19 19 22 21 20 19 19 19 18 18 19 18 16 15 17 18 17 17 17 17 18 17 14 11 7 5 6 8 10 13 17 18 18 20 20 18 17 17 17 15 14 13 11 10
20 21 22 21 20 20 19 20 20 19 19 17 16 16 16 18 17 17 16 15 15 14 12 10 7 5 5 7 10 13 16 18 20 20 20 19 17 17 16 16 15 14 12 11
20 21 23 21 20 21 20 21 21 19 19 17 16 16 15 17 17 15 14 12 13 12 10 8 6 4 4 6 9 12 16 18 20 20 20 19 18 17 17 16 15 15 14 12
20 22 22 21 20 21 20 20 20 20 19 17 15 15 14 15 15 13 10 10 11 11 9 7 5 3 3 5 8 11 15 17 18 19 19 19 18 18 17 16 16 16 15 13
20 21 20 20 20 20 20 20 20 20 18 16 14 14 13 14 13 11 9 9 10 9 7 6 5 4 3 4 7 11 13 15 17 18 19 19 18 18 18 17 17 16 15 14
18 18 19 18 18 20 21 21 21 20 19 17 15 12 12 12 11 10 9 8 9 8 7 6 5 3 3 4 6 8 12 13 15 16 18 18 18 18 17 17 17 16 16 15
19 17 18 19 19 20 21 22 22 21 20 18 15 11 10 12 11 10 9 9 8 8 7 6 5 3 2 3 6 9 10 12 13 15 16 17 17 17 17 17 17 16 16 16
22 20 20 20 21 21 22 23 23 23 22 20 15 11 10 11 11 10 9 9 9 8 7 6 5 4 2 2 4 7 10 11 11 12 14 15 16 17 17 17 17 17 17 16
25 23 21 22 22 22 23 23 23 24 24 22 18 12 10 11 11 9 9 9 9 9 8 7 6 4 3 2 4 6 8 10 10 11 12 14 15 16 17 18 17 17 17 18
28 26 24 24 25 25 26 26 25 25 23 23 21 14 12 12 12 11 10 10 10 10 9 8 7 6 5 4 4 5 6 8 10 11 12 14 15 16 17 18 18 18 18 18
31 31 28 27 27 27 28 28 27 27 26 25 22 17 15 14 13 12 12 12 12 11 9 9 8 8 7 6 6 6 7 8 9 11 12 12 14 16 17 18 18 19 20 20
35 34 33 31 29 29 29 29 29 28 28 27 24 20 17 16 14 14 13 13 13 13 12 12 11 10 9 9 9 9 9 10 10 11 12 13 14 15 16 18 18 20 21 22
39 38 37 36 34 33 32 31 31 31 29 28 24 21 19 17 16 15 15 14 14 14 14 13 13 12 12 12 12 12 12 13 13 14 14 16 16 17 18 19 20 22 24 25
41 41 41 41 39 38 36 33 33 32 30 29 26 23 21 19 18 17 17 16 15 15 15 15 15 15 15 14 14 14 14 15 16 16 17 18 18 19 20 21 22 24 25 27
41 41 42 42 42 42 40 35 34 34 32 30 28 25 24 22 21 20 20 18 17 17 17 17 16 16 16 16 17 16 16 17 17 18 19 19 20 20 21 22 23 24 26 28
38 40 42 42 42 44 40 37 36 35 34 32 30 27 26 24 23 23 21 20 20 20 19 19 19 18 18 18 19 18 18 18 18 19 21 21 21 22 23 24 24 25 26 28
34 35 37 39 40 40 37 36 36 36 35 32 30 28 27 25 24 23 23 22 22 22 21 21 20 20 20 20 20 20 20 20 19 20 22 23 23 24 25 25 26 27 28 28
30 32 33 35 36 36 34 34 34 35 34 30 29 29 28 26 26 24 23 23 23 22 22 22 22 22 21 21 21 21 21 21 21 22 23 25 26 26 27 27 28 29 29 30
27 29 30 32 33 32 30 30 32 33 30 29 28 28 28 26 26 25 25 24 23 23 23 23 24 23 22 22 22 22 22 22 23 24 25 25 27 28 29 29 30 31 32 33
25 26 27 29 29 28 26 27 28 29 28 28 27 28 28 27 26 25 24 24 23 23 23 23 23 23 22 21 22 22 23 24 25 25 26 27 27 28 29 30 31 32 33 35
22 23 24 25 25 24 24 24 24 25 25 26 26 27 26 26 26 26 25 24 24 24 24 24 24 22 22 23 23 23 23 24 25 26 26 27 28 29 30 31 33 34 34 35
19 20 21 21 21 20 20 22 23 24 24 24 25 25 24 24 24 25 24 23 23 25 25 24 23 22 22 22 22 23 24 24 25 26 27 28 29 30 31 32 34 35 36 37
17 18 18 17 17 18 18 19 21 22 23 23 23 23 24 23 24 23 22 22 23 24 25 24 23 23 22 22 23 24 25 26 27 28 28 29 30 31 32 34 35 36 37 38
13 15 17 15 14 15 15 17 18 20 21 21 20 21 23 23 23 24 22 21 22 22 23 23 22 22 22 23 24 25 26 27 28 29 30 30 31 32 32 34 35 36 37 38

GEFSCGP_500_meanwind_114.txt.gz
Wind_Speed
19 18 18 17 16 15 14 13 13 14 13 13 13 14 15 16 18 18 18 17 15 15 15 12 10 9 8 8 10 12 15 15 17 19 20 20 19 18 17 15 13 13 11 10
20 19 19 19 16 15 14 13 13 14 14 13 12 13 15 16 17 18 17 16 15 15 13 11 9 8 7 6 8 11 14 15 17 20 20 19 19 18 16 16 14 13 11 10
21 21 20 18 16 15 14 14 14 14 14 13 12 12 14 15 16 16 15 15 14 13 12 10 8 7 6 6 8 11 13 15 17 19 20 19 19 17 17 16 15 13 12 10
22 21 20 19 17 16 15 15 14 14 12 13 12 11 12 13 14 14 15 14 13 12 11 9 7 6 5 6 7 10 13 15 16 18 18 18 18 17 17 17 15 14 13 11
21 21 20 19 18 17 16 16 14 13 13 12 12 11 10 12 13 13 13 12 11 10 9 8 7 6 5 5 6 8 12 15 17 18 18 17 18 18 18 17 16 15 13 12
21 21 20 19 19 18 16 15 14 13 13 12 12 11 10 12 12 12 11 10 10 9 8 7 6 5 4 4 5 7 10 14 16 17 18 18 18 18 18 17 16 15 14 13
20 20 20 20 19 18 16 14 13 13 13 13 14 12 11 11 11 11 10 10 9 9 8 7 5 5 4 3 4 7 9 12 14 16 18 18 18 18 17 16 15 14 14 13
18 18 19 19 19 18 17 16 15 14 13 13 15 13 11 11 11 10 10 9 9 8 8 7 6 5 4 3 3 6 8 10 13 15 18 18 18 18 17 16 15 15 14 15
17 18 19 19 19 19 19 18 16 16 15 14 13 13 12 11 11 10 10 9 8 8 8 8 7 6 5 3 3 5 7 9 11 15 17 17 17 17 17 16 15 15 15 15
18 18 19 19 19 19 19 18 19 17 16 15 13 12 11 11 11 10 10 9 8 8 8 8 7 6 5 3 3 4 7 10 11 13 15 16 16 16 16 16 16 16 15 15
20 20 20 20 20 19 20 20 19 18 17 16 14 13 13 12 12 11 10 10 9 8 8 7 6 6 5 3 2 3 5 8 11 12 13 15 15 16 15 15 16 16 16 16
23 22 21 22 22 22 21 20 20 19 19 18 16 15 15 13 12 11 11 10 10 9 8 7 6 5 5 4 3 3 4 6 9 11 12 13 14 15 15 15 16 17 17 17
27 26 24 22 23 25 24 23 22 21 20 19 17 16 18 14 14 13 12 12 11 11 9 8 7 6 5 4 4 4 4 5 8 10 12 12 13 14 14 16 17 18 18 18
29 28 26 23 22 24 25 25 24 23 22 21 20 19 19 17 16 15 14 14 13 12 11 10 9 8 7 6 6 6 6 6 7 9 10 11 12 13 14 15 15 16 18 19
31 30 29 28 28 27 26 26 26 26 25 23 22 21 20 19 17 16 16 15 14 13 12 12 11 11 10 9 8 8 8 8 8 9 10 11 13 14 14 14 15 17 18 20
32 32 31 30 30 30 29 28 27 27 27 27 25 23 22 20 20 18 17 16 16 15 14 13 13 13 12 12 11 10 10 11 11 11 12 13 14 14 15 16 17 18 19 20
33 33 32 31 32 32 32 29 29 28 28 28 28 26 24 23 23 21 20 19 19 17 16 16 15 15 15 14 13 13 13 13 12 13 13 14 15 16 17 18 19 20 20 21
32 33 33 32 33 34 30 30 30 30 29 28 28 28 27 26 25 24 23 23 22 20 19 18 18 17 16 15 15 15 15 15 15 15 16 16 17 18 20 20 21 23 23 24
29 30 31 31 32 31 30 30 29 29 29 29 29 29 28 28 27 26 25 24 24 23 22 21 20 20 19 19 18 18 18 19 18 18 19 19 19 20 21 21 23 24 25 26
26 27 29 30 30 30 29 28 27 28 29 28 28 29 28 28 28 27 26 25 25 24 23 23 23 22 22 21 21 21 20 20 21 21 21 22 22 22 23 23 25 26 27 29
24 25 27 28 29 29 28 26 26 27 28 27 28 29 29 30 30 28 27 26 26 25 25 24 24 24 24 24 23 22 22 22 23 23 24 24 25 25 26 26 28 29 30 31
24 25 26 27 27 27 25 25 26 26 25 25 27 28 29 29 29 29 28 28 27 26 25 25 25 25 25 24 24 24 24 25 25 26 26 25 26 27 28 28 30 30 31 32
24 25 26 26 25 24 23 24 24 24 23 24 25 26 27 28 28 28 28 29 29 28 27 27 27 27 27 26 26 27 27 27 26 26 26 26 27 28 29 30 31 32 33 34
23 23 24 24 24 23 22 23 23 23 23 23 24 25 27 28 29 29 30 30 30 29 28 28 27 27 27 27 28 28 28 28 28 27 28 28 28 29 30 31 32 33 34 35
21 22 22 22 22 22 22 22 22 22 23 23 23 25 27 27 28 29 30 29 29 29 28 28 28 28 28 28 29 29 28 27 27 27 28 28 29 30 31 32 33 33 34 35
20 20 21 21 21 21 20 21 20 21 21 21 22 23 25 26 27 28 28 28 28 28 28 28 28 28 28 28 28 28 28 27 27 27 27 28 29 30 31 32 32 33 35 36

GEFSCGP_500_meanwind_120.txt.gz
Wind_Speed
19 17 15 13 12 11 10 11 12 11 13 17 17 14 15 17 17 19 21 21 19 18 18 18 16 13 10 9 9 8 9 10 11 11 13 14 16 16 16 15 14 13 12 11
20 17 15 15 13 13 14 14 14 15 17 18 17 14 16 18 16 18 21 21 19 18 17 16 14 11 9 9 8 7 8 9 10 11 13 15 16 16 16 15 14 13 12 11
20 17 16 15 15 14 15 15 14 16 16 16 15 13 16 17 16 16 19 19 19 17 16 14 12 10 10 9 8 8 8 9 10 11 13 15 16 16 15 14 14 14 13 12
20 17 17 16 16 15 16 15 15 16 16 15 15 15 16 19 17 16 17 18 18 17 16 13 11 10 10 8 7 7 7 9 10 11 13 14 15 15 14 14 16 15 14 13
20 18 18 18 17 16 16 16 16 16 17 15 14 13 15 17 16 16 17 18 18 17 15 12 11 10 9 7 6 6 6 7 9 10 12 14 15 15 15 15 16 15 15 14
20 19 19 18 17 16 16 15 15 15 14 13 12 13 14 17 19 16 18 19 18 16 14 12 10 9 8 6 5 5 6 7 8 10 12 14 15 16 16 16 16 15 15 14
20 19 19 18 17 16 16 15 14 13 12 12 12 11 12 16 18 17 19 20 18 15 13 11 9 8 7 6 5 5 5 6 7 10 13 14 15 15 15 16 16 15 15 14
17 17 17 18 18 16 16 15 15 14 14 15 13 12 11 14 16 18 19 19 17 14 12 11 9 8 7 6 5 5 5 6 7 10 13 14 15 15 16 16 16 16 15 15
13 14 15 18 17 16 16 16 14 16 15 16 14 12 13 15 16 17 18 17 14 13 12 11 10 9 7 6 5 5 5 6 7 9 11 13 14 15 16 17 17 16 15 15
19 16 14 16 17 17 17 16 16 17 17 17 15 17 19 15 15 16 16 16 14 12 11 11 10 9 7 6 6 5 4 6 7 8 10 12 13 14 15 16 17 16 16 15
22 21 16 16 17 15 15 17 18 18 18 17 17 18 18 15 15 14 16 16 14 13 12 11 10 9 7 6 6 4 3 5 7 8 9 11 12 14 15 15 16 16 16 16
23 24 21 20 18 16 16 16 18 20 20 19 19 18 17 14 13 13 17 17 16 15 13 11 10 10 8 6 5 4 4 4 7 7 8 10 11 13 14 14 16 16 16 16
27 27 25 21 19 19 18 18 19 19 19 19 17 18 18 17 17 17 17 18 17 16 15 13 11 10 9 8 6 5 4 4 4 7 8 9 11 12 12 13 14 15 16 17
29 29 28 24 22 24 24 23 22 22 22 21 19 21 20 20 20 19 18 19 18 17 16 15 13 11 9 8 7 6 5 5 5 6 8 9 10 11 12 13 13 14 15 15
32 31 30 29 29 28 25 24 23 23 24 23 22 24 23 23 23 21 20 20 20 19 18 16 14 13 11 10 9 8 7 7 6 7 8 10 11 12 12 12 13 14 14 15
34 34 33 31 29 29 27 25 24 25 24 25 26 26 25 27 26 25 23 22 21 21 20 18 17 15 14 12 11 11 10 10 9 9 9 10 11 12 13 13 13 14 15 16
31 33 33 31 29 29 29 28 27 27 26 27 28 28 28 29 26 26 27 26 24 23 21 19 18 16 16 15 14 13 13 12 11 11 10 10 12 13 14 15 14 15 15 16
31 32 32 31 31 31 28 29 30 29 29 30 31 32 33 33 31 30 28 27 25 25 23 22 21 20 19 17 17 16 16 15 14 13 13 12 12 13 14 14 15 16 17 18
32 32 31 31 31 29 28 30 30 30 30 33 34 34 35 33 33 32 30 28 28 27 25 24 23 22 21 20 19 18 18 17 17 16 16 15 15 15 16 17 17 18 19 20
30 30 30 30 30 28 28 29 30 30 32 34 34 34 34 34 35 34 31 29 28 28 27 27 25 24 23 22 21 20 20 20 19 18 19 18 19 19 20 20 20 21 21 22
27 27 28 29 30 29 30 31 31 32 33 33 33 32 34 35 34 34 32 30 29 29 29 27 27 25 25 24 23 23 22 22 22 22 21 20 20 21 21 22 23 23 24 25
26 27 27 27 29 30 32 32 31 32 32 32 32 32 34 35 34 33 32 31 30 30 29 28 27 27 26 25 24 23 23 23 24 24 23 22 23 23 23 24 25 26 27 29
27 26 26 27 27 29 31 31 31 31 31 31 31 31 32 33 32 32 32 32 31 30 30 29 28 28 28 27 25 25 25 25 25 25 25 25 25 26 26 27 27 29 30 30
26 27 27 28 29 30 30 30 31 30 30 29 29 30 30 30 30 31 31 31 31 30 30 29 28 28 27 27 27 27 27 27 27 27 27 28 27 27 28 30 31 31 32 33
26 26 27 27 28 29 30 30 29 28 28 28 28 27 28 29 29 29 28 29 29 29 29 29 28 28 28 28 28 27 27 27 28 28 28 28 29 30 30 30 31 31 32 33
26 26 26 26 27 27 27 27 26 26 26 25 26 27 26 27 26 26 26 27 28 28 28 28 28 29 29 29 29 29 28 28 28 29 29 29 30 29 30 30 31 31 31 32

GEFSCGP_500_meanwind_126.txt.gz
Wind_Speed
18 16 15 15 15 15 16 16 14 11 10 10 11 12 14 15 16 17 17 18 17 17 16 16 17 16 13 10 8 6 6 7 7 8 8 9 11 13 14 14 14 13 12 12
19 17 17 18 17 16 16 16 14 11 10 12 14 14 15 17 18 18 16 16 15 16 15 15 15 13 10 9 7 6 8 7 7 9 10 11 12 13 14 15 15 14 13 13
20 19 20 19 18 17 17 15 13 12 12 15 17 16 16 17 18 16 13 13 14 15 14 14 13 11 9 8 7 5 6 7 8 9 10 13 13 13 14 16 15 14 14 14
21 20 21 19 18 18 17 14 13 14 16 17 18 18 17 18 18 15 13 12 13 13 13 13 12 10 9 8 7 5 5 8 9 9 10 13 13 14 14 17 16 15 15 15
21 21 21 20 18 17 16 15 15 17 18 18 18 19 17 19 18 15 12 11 10 11 11 11 11 10 9 8 7 6 6 7 8 8 10 13 14 15 15 16 16 15 16 15
22 23 22 21 20 18 16 16 18 18 18 17 16 17 16 18 16 15 11 9 8 9 10 11 10 10 9 7 6 5 3 6 8 9 11 13 15 15 15 16 15 15 16 16
23 22 21 21 21 18 17 17 18 18 17 14 14 15 15 14 14 12 10 8 8 8 9 10 10 9 8 6 5 5 3 5 7 9 10 13 15 15 15 16 17 16 17 17
23 20 19 19 18 16 16 18 18 18 16 14 14 14 13 11 12 11 9 8 8 8 8 9 9 8 8 6 5 4 3 4 6 9 10 11 15 16 16 16 18 18 18 18
21 20 20 19 16 15 15 17 16 17 17 17 15 14 13 12 11 11 10 7 7 7 7 7 7 7 7 6 4 4 4 4 6 8 9 11 14 16 17 17 18 19 19 19
21 21 21 20 19 16 15 15 17 19 19 18 17 14 13 13 12 11 9 8 6 7 7 7 7 6 6 6 5 4 4 4 5 8 8 11 13 15 17 17 18 19 20 20
21 22 21 21 20 17 16 17 18 19 20 20 19 17 15 15 13 12 10 9 8 8 8 7 7 6 5 5 5 4 4 5 6 7 9 11 12 14 16 18 18 19 21 21
21 23 24 22 21 19 19 18 19 20 20 20 21 19 17 16 15 13 12 9 9 9 8 8 6 5 5 5 5 5 4 5 6 7 8 10 12 14 15 17 18 18 19 20
25 26 26 25 24 23 22 21 21 21 20 21 21 19 18 18 18 16 14 11 10 9 9 9 7 7 6 6 6 6 6 6 6 7 8 9 11 13 14 16 17 18 19 20
28 28 28 27 26 26 25 25 24 23 23 23 22 21 20 20 19 19 17 15 14 12 12 11 9 8 7 7 8 8 8 8 8 8 9 9 10 12 14 15 16 17 18 19
32 32 30 29 29 29 28 28 27 27 27 26 25 25 23 22 21 21 20 18 17 14 13 12 12 11 9 9 9 9 9 8 9 9 10 11 11 12 14 15 16 16 17 18
35 34 33 31 31 31 30 30 30 30 30 29 29 29 26 25 24 22 21 20 18 17 15 15 14 13 12 11 11 11 11 10 10 10 11 12 11 12 13 15 16 17 17 18
38 36 35 35 34 33 33 32 33 33 33 31 30 30 30 29 27 25 23 23 21 20 19 16 16 16 15 13 14 13 12 12 12 12 12 12 12 12 13 14 16 17 18 19
39 38 36 36 36 37 36 35 35 35 34 33 32 31 30 29 28 27 26 26 24 23 20 19 18 18 17 16 16 15 14 14 14 13 14 14 14 14 14 15 17 18 19 19
41 38 37 35 35 35 36 36 35 36 36 35 33 31 30 30 29 29 28 28 27 25 24 22 21 20 19 19 18 17 17 16 16 16 16 16 16 16 16 17 18 18 19 20
40 39 38 35 34 34 33 34 36 36 36 35 34 32 31 31 31 30 29 29 27 27 26 24 22 22 20 19 19 19 19 19 18 18 18 17 17 17 17 18 19 19 20 21
39 37 36 35 34 33 31 31 33 35 35 33 33 33 32 33 32 31 30 30 29 29 27 26 26 24 23 22 22 22 21 20 20 19 19 18 18 19 20 20 20 21 21 22
34 34 33 33 33 32 30 30 31 33 33 33 32 32 31 31 30 30 29 29 30 30 29 29 27 25 24 23 23 22 22 22 21 19 18 18 20 19 19 21 22 22 23 23
33 33 32 32 31 30 29 29 31 32 32 32 32 32 30 29 28 29 29 30 29 29 29 28 26 25 25 24 23 23 22 22 21 21 21 22 21 22 23 22 22 22 24 24
32 31 31 31 30 29 28 28 29 30 30 31 31 29 29 28 28 28 28 28 28 27 27 26 25 24 24 24 24 24 24 23 22 23 23 23 23 23 23 25 25 25 25 26
31 29 29 29 29 27 27 27 27 27 28 27 27 27 27 28 28 28 27 26 26 25 24 23 23 22 21 21 22 22 22 22 22 22 22 23 24 24 25 26 26 26 27 28
27 28 27 26 25 26 25 26 26 25 25 25 25 25 25 25 25 24 24 24 23 23 22 23 23 22 21 21 21 21 22 23 23 23 23 23 24 25 26 27 27 28 29 30

GEFSCGP_500_meanwind_132.txt.gz
Wind_Speed
21 20 18 19 18 17 16 16 16 16 17 17 16 15 15 14 13 12 12 12 13 13 14 15 15 15 14 13 10 8 6 5 6 7 10 11 13 14 14 15 15 14 13 12
23 21 21 21 20 18 16 16 16 17 19 19 18 17 15 15 14 13 12 12 13 14 15 15 15 16 14 12 10 7 5 5 6 8 10 12 13 14 15 15 15 15 14 13
24 24 24 23 21 19 17 17 17 18 20 21 20 17 16 15 15 13 12 12 13 14 14 14 15 14 12 11 9 7 5 5 7 8 10 11 13 15 15 14 16 16 15 14
26 26 25 24 22 20 18 18 19 20 21 22 21 18 15 16 14 13 12 12 12 13 14 14 14 13 12 10 9 7 4 5 7 9 11 12 13 15 15 16 16 16 15 15
26 27 26 24 22 21 20 22 21 21 22 21 21 19 16 15 14 13 12 12 12 12 12 13 13 12 11 9 8 6 4 5 7 10 11 13 14 16 16 16 16 16 16 15
28 28 26 24 24 22 22 23 22 22 22 21 19 19 16 15 14 13 12 12 12 12 12 12 12 11 10 9 8 6 5 4 7 9 12 13 14 16 16 16 16 16 16 16
28 27 26 25 24 23 22 22 23 22 22 20 18 18 15 13 12 12 12 11 12 11 10 11 10 9 9 8 7 6 4 3 5 8 10 13 15 16 15 16 17 17 17 16
29 27 27 25 24 23 23 23 22 22 21 19 18 16 14 13 12 11 11 10 10 10 10 10 9 9 8 7 7 5 5 4 4 6 10 13 14 16 15 16 17 18 17 17
28 27 26 26 25 25 25 24 22 22 21 19 18 16 15 14 12 12 10 9 10 10 10 10 9 9 8 7 6 6 5 4 4 5 8 11 14 15 15 16 17 18 18 19
29 27 26 26 26 26 25 24 23 22 21 19 18 16 15 13 13 13 12 10 10 10 10 10 9 8 7 7 6 6 5 4 3 4 5 8 12 13 14 15 16 17 18 19
28 27 26 26 26 25 25 24 24 23 21 20 18 15 14 13 13 12 11 10 10 10 10 9 8 7 7 6 6 6 5 4 4 4 5 7 10 12 13 14 15 16 18 19
27 27 26 27 27 26 25 24 23 22 21 19 18 15 14 13 14 13 11 10 9 10 11 10 8 7 7 7 7 7 6 5 5 5 6 7 9 11 12 13 15 16 17 19
27 27 27 28 28 27 26 25 24 22 21 20 19 15 14 14 15 15 13 12 11 11 11 11 10 9 8 8 8 9 7 7 7 6 7 8 9 11 13 14 15 16 16 18
28 28 27 26 25 26 26 25 24 23 22 21 20 18 16 15 16 16 15 14 13 13 13 11 12 11 10 10 10 10 8 8 8 8 8 9 10 11 12 13 14 16 17 18
28 27 26 26 25 26 26 26 25 24 22 22 21 20 18 17 17 17 16 15 15 15 14 13 12 12 11 11 11 11 10 10 10 10 10 11 11 12 13 14 15 16 17 18
29 28 26 26 26 26 27 27 27 26 25 24 23 22 20 19 18 18 17 16 16 14 14 14 14 14 13 12 12 12 12 11 12 12 12 12 12 13 14 15 16 16 17 18
32 31 29 28 28 28 29 28 28 28 27 26 25 24 22 21 20 19 19 19 18 17 17 16 15 14 14 14 13 13 13 13 14 14 14 15 15 15 16 17 17 17 18 19
35 34 33 32 31 32 31 30 29 30 30 29 27 26 24 23 22 22 21 21 21 20 19 18 18 16 16 15 14 14 14 15 15 16 16 16 16 17 17 17 17 17 18 19
38 36 35 35 35 35 33 32 31 31 31 31 29 28 26 25 25 24 23 23 23 22 21 20 19 18 17 16 16 16 16 16 17 16 17 18 18 18 18 18 19 18 19 20
38 38 38 38 37 37 34 33 33 33 32 30 29 28 27 26 25 24 24 24 24 24 23 22 21 20 19 18 18 18 19 19 19 19 18 18 18 18 18 19 19 19 20 21
36 36 37 37 38 37 35 34 34 33 32 29 29 28 28 27 26 26 25 25 25 25 24 23 23 22 21 21 21 21 20 20 21 21 20 20 20 19 20 20 20 20 21 22
35 36 36 36 37 37 35 34 34 33 32 30 29 28 28 27 27 26 26 25 24 24 24 24 24 23 23 23 23 23 23 22 21 21 21 20 21 22 22 22 22 21 22 23
35 35 35 36 35 34 34 33 32 31 31 30 29 28 28 26 26 26 25 24 24 24 24 24 23 23 23 23 22 23 23 22 22 22 21 21 22 22 23 24 24 23 23 25
33 33 34 34 33 33 32 32 31 30 29 28 28 27 27 26 26 25 24 24 24 24 24 24 23 23 23 23 23 23 23 23 22 22 21 22 23 23 24 23 22 23 24 24
32 32 32 32 31 31 31 30 29 29 28 26 26 26 25 25 25 25 24 23 24 24 24 24 24 23 23 23 22 21 21 21 22 22 22 23 23 24 24 23 22 21 22 22
30 30 31 31 30 28 28 27 27 27 26 25 25 25 24 24 24 24 24 23 22 23 23 23 23 23 23 22 21 21 20 21 21 21 22 22 23 23 23 23 24 24 24 24

GEFSCGP_500_meanwind_138.txt.gz
Wind_Speed
19 18 17 17 16 14 13 13 13 13 12 10 9 9 10 11 10 11 11 11 12 12 12 12 12 12 12 12 11 10 9 7 7 9 11 12 14 15 15 15 15 15 15 15
22 21 20 19 17 16 15 14 14 14 13 11 10 10 11 12 12 12 12 12 12 13 12 12 12 13 12 11 11 9 8 7 7 9 11 13 14 15 15 15 15 16 16 15
24 23 22 20 19 17 16 16 16 16 14 13 11 11 12 13 13 12 12 13 13 13 13 11 12 13 13 11 10 9 8 7 7 9 11 12 13 14 14 15 16 17 17 16
27 25 24 23 21 19 19 18 17 16 14 14 11 10 14 13 12 12 13 14 14 13 12 11 12 12 12 11 10 9 8 6 7 8 10 11 12 14 15 16 17 17 17 17
28 27 25 24 22 22 21 19 18 16 14 14 13 11 13 13 12 13 13 13 13 12 12 12 11 11 11 10 10 9 8 6 6 8 9 10 12 14 16 16 17 18 18 17
30 27 26 24 24 23 22 19 18 16 15 14 14 12 12 13 12 12 12 12 11 11 10 10 10 10 10 10 9 8 7 6 6 7 9 10 11 14 15 17 18 18 18 18
30 28 27 25 24 23 21 19 17 16 15 14 15 13 13 13 11 11 11 10 10 10 10 10 10 9 9 9 8 8 7 6 5 6 8 9 10 12 15 17 18 18 18 18
30 29 27 25 24 24 22 20 18 15 13 14 16 14 14 13 11 11 10 10 9 9 9 9 9 9 9 8 8 7 7 6 5 6 7 9 10 11 13 16 18 18 18 18
30 29 28 27 26 25 24 21 19 18 17 15 15 15 14 13 12 11 11 10 9 8 8 8 8 9 9 8 7 7 7 6 5 5 6 7 9 11 13 15 17 17 18 18
31 31 29 28 28 27 25 23 22 20 18 16 15 14 13 13 12 12 11 10 9 9 8 8 9 8 8 8 7 7 7 6 5 5 6 7 9 10 13 14 15 16 16 17
31 31 30 29 28 26 25 24 23 21 20 16 13 14 14 13 12 11 11 10 9 8 9 8 8 8 7 7 7 7 7 7 6 6 6 7 8 10 12 13 14 15 16 17
29 29 29 28 28 27 25 24 22 21 20 17 14 14 15 13 12 12 11 11 10 9 9 9 9 9 9 9 9 8 8 8 8 7 7 8 8 9 11 13 14 15 16 17
29 29 28 27 28 27 25 24 22 20 19 18 15 15 16 14 14 13 13 13 12 12 11 11 11 11 11 10 10 10 10 9 8 8 8 9 10 11 12 13 14 15 16 17
28 28 26 23 22 23 23 23 22 21 20 18 16 16 17 15 15 15 14 14 14 14 13 12 12 13 13 12 12 12 12 11 10 10 10 10 11 12 13 14 14 15 16 17
29 28 27 26 25 23 22 22 22 22 20 18 17 17 17 17 16 15 15 15 15 15 15 14 13 14 14 13 13 13 13 13 12 12 12 12 12 13 14 14 15 16 16 17
30 29 27 27 26 25 25 24 23 22 22 20 19 19 19 18 17 16 15 16 16 16 16 15 15 15 15 14 14 14 14 14 14 14 14 14 14 14 15 15 17 17 18 19
31 30 28 27 26 26 26 26 25 24 22 21 20 20 19 18 18 17 17 16 17 17 18 17 16 16 16 16 16 16 16 15 15 15 15 15 16 17 17 17 18 18 19 19
32 30 29 27 27 27 26 26 25 24 23 22 22 21 20 19 19 19 19 19 19 18 19 19 18 17 17 17 17 17 16 16 16 16 17 18 18 18 19 19 19 20 21 21
33 31 30 29 27 28 30 27 26 26 26 25 24 23 22 21 21 21 20 21 21 20 20 20 20 20 20 19 19 18 18 18 18 19 19 19 20 20 20 20 20 21 22 23
34 33 32 32 28 27 29 28 26 27 28 26 25 24 23 22 23 22 21 21 22 22 22 22 22 22 22 22 21 21 20 20 20 20 21 21 22 22 22 22 22 22 22 23
35 34 34 33 31 30 31 28 27 29 28 26 25 25 24 24 24 23 22 22 23 23 23 24 24 24 24 24 24 23 23 22 22 22 22 23 23 23 23 23 23 23 23 23
35 35 35 33 32 33 32 30 30 30 29 28 27 26 26 25 24 24 24 24 24 24 24 25 25 25 25 26 26 25 25 24 23 23 23 23 24 25 24 24 24 24 24 24
35 35 34 34 34 34 32 31 30 29 30 29 28 28 27 26 26 25 25 25 25 25 25 25 26 26 26 26 26 26 25 25 24 24 24 24 24 24 25 25 25 25 25 24
34 34 34 34 33 33 32 30 29 29 29 28 28 28 27 26 25 25 24 24 25 25 25 25 26 26 26 26 25 25 24 24 24 25 25 26 26 25 25 25 25 26 26 26
33 33 33 33 32 32 31 31 30 30 29 29 28 27 26 26 25 25 25 25 25 25 25 25 26 26 26 26 25 24 24 24 25 25 25 25 26 27 28 27 26 26 26 27
31 31 31 32 31 31 31 30 30 30 30 29 28 27 27 27 26 25 25 25 25 26 25 24 25 25 25 25 26 25 25 25 25 25 24 24 24 24 25 25 26 27 27 28

GEFSCGP_500_meanwind_144.txt.gz
Wind_Speed
17 16 13 12 10 9 9 11 11 10 15 15 11 9 11 13 13 15 17 15 13 14 13 14 15 16 16 17 16 15 13 11 9 6 6 6 7 9 11 11 12 12 12 12
19 17 15 14 13 13 12 12 12 12 16 15 12 10 11 14 15 16 16 16 15 15 14 14 15 16 16 16 15 14 13 11 9 7 6 6 7 8 10 11 11 12 13 12
21 18 18 17 16 15 14 13 13 12 14 15 12 10 11 16 17 17 16 16 15 15 14 14 15 15 15 15 14 12 11 10 9 7 6 5 6 7 8 11 12 13 13 13
23 21 20 19 18 17 16 15 15 15 15 13 10 11 15 17 18 17 15 15 16 15 14 14 15 14 14 14 13 11 11 9 8 7 6 6 6 7 9 10 11 13 13 13
24 23 23 22 20 19 17 16 16 16 15 13 11 12 16 17 18 16 16 16 16 16 14 12 13 13 13 13 11 10 10 10 8 7 6 6 7 8 9 11 12 12 13 13
26 24 25 23 22 21 19 18 17 16 14 14 11 13 15 17 18 16 17 16 16 16 14 13 13 13 12 12 10 10 9 9 8 6 5 5 6 7 9 11 13 13 14 14
27 26 26 24 23 22 20 18 16 14 13 12 11 13 15 18 19 19 20 17 16 15 14 12 12 12 11 11 10 9 9 8 7 7 7 7 7 7 8 11 12 14 14 15
28 27 26 26 23 21 21 18 16 11 11 12 12 13 14 17 19 19 19 18 15 14 13 12 11 11 11 10 10 10 9 8 8 7 6 6 6 6 8 10 12 13 13 14
24 23 23 25 24 22 22 20 17 16 14 14 14 14 16 17 19 19 18 17 15 14 13 11 10 10 10 9 9 9 9 8 7 7 6 6 6 6 7 8 11 13 13 14
25 20 19 23 24 23 22 19 17 20 20 18 15 17 19 18 18 18 17 16 16 14 13 12 11 10 9 9 9 8 8 8 8 7 7 7 7 7 7 8 9 11 13 14
29 26 21 23 26 22 23 23 22 20 19 18 16 18 20 20 18 16 17 16 16 15 13 12 11 11 10 10 9 9 9 9 8 8 8 7 7 7 7 7 9 11 12 14
30 30 25 23 24 23 21 22 23 24 23 22 19 20 21 19 16 17 17 17 17 16 14 13 13 12 11 11 11 10 10 9 9 9 9 8 8 7 8 8 10 11 12 13
31 32 30 24 23 24 23 23 23 23 22 21 20 21 23 22 19 20 19 19 17 16 16 15 14 13 13 13 12 12 11 11 11 10 10 10 9 9 10 10 11 12 13 14
33 34 32 26 22 21 22 21 22 23 22 21 21 22 24 22 21 22 21 19 18 17 16 16 15 15 15 15 14 13 13 13 12 12 11 11 11 11 11 12 13 14 15 15
34 34 33 30 24 20 20 20 21 23 24 22 21 23 24 24 24 21 21 19 19 18 17 17 17 16 16 16 15 15 15 14 14 13 13 12 12 12 13 13 14 15 16 17
35 34 33 32 28 23 20 20 20 22 23 24 24 25 26 24 25 23 22 22 21 19 19 19 18 17 17 17 17 16 16 15 15 15 15 14 14 14 15 15 16 17 18 19
34 34 34 31 28 26 25 22 21 20 21 23 25 26 27 26 25 24 23 24 23 21 20 20 19 19 19 19 18 18 18 17 16 16 16 16 16 16 16 16 17 17 17 19
34 34 33 30 27 28 26 24 23 23 24 25 27 30 30 30 27 26 25 24 24 23 22 21 21 21 21 20 20 20 19 19 19 18 18 18 18 18 17 18 18 18 19 20
35 34 33 31 28 27 26 26 25 26 27 28 29 32 32 32 31 28 26 25 24 23 23 23 22 22 23 23 22 22 22 21 20 20 20 20 20 19 19 19 19 20 21 21
35 35 34 33 29 28 28 28 28 29 31 31 32 33 34 33 31 29 26 25 24 24 23 24 23 24 24 24 24 23 23 23 22 22 21 21 21 21 21 21 21 21 21 21
36 36 36 34 31 30 30 30 30 31 33 33 32 33 34 33 31 28 25 24 25 24 24 24 24 24 24 25 25 25 24 24 24 24 23 22 22 22 22 23 23 22 22 23
33 35 36 36 35 34 34 33 32 34 32 32 32 32 31 30 29 28 26 25 25 25 25 25 25 25 25 26 26 26 25 25 24 25 24 24 23 23 24 24 24 24 24 25
34 34 34 37 40 40 39 37 35 34 32 32 32 32 30 29 28 28 27 26 26 26 26 26 26 26 26 26 26 26 26 25 25 25 25 25 25 25 25 25 25 25 26 27
35 36 37 38 41 41 40 38 37 35 33 33 31 32 33 30 29 29 29 28 27 27 27 27 27 27 27 26 26 26 26 26 26 26 26 26 26 26 25 25 25 26 28 28
37 38 39 40 40 41 40 38 37 35 33 33 33 33 32 31 31 30 29 29 28 28 28 28 28 28 28 27 27 27 26 27 26 27 27 26 26 25 25 26 26 27 27 27
37 38 40 42 42 41 40 37 35 35 33 33 34 34 33 33 31 30 29 29 29 28 28 28 28 27 27 27 27 27 27 27 27 27 27 26 25 25 26 26 26 27 27 27

GEFSCGP_500_meanwind_150.txt.gz
Wind_Speed
16 14 13 12 12 12 13 11 7 4 4 7 10 13 13 13 13 14 15 17 16 16 16 15 14 14 13 13 12 12 12 10 8 5 3 3 3 5 7 8 10 10 10 10
18 15 15 15 14 14 14 12 9 7 7 9 11 12 12 13 13 14 15 16 17 16 15 14 14 13 13 12 12 12 11 9 7 5 2 2 3 5 7 8 10 10 10 10
19 17 18 17 16 15 14 12 11 12 12 13 13 12 13 12 13 14 15 15 16 16 16 14 13 12 12 12 12 11 10 8 7 5 3 2 3 4 6 8 10 11 10 11
21 20 20 18 17 17 15 13 13 15 16 16 16 15 13 12 13 14 14 14 15 16 15 13 12 11 11 12 11 10 9 7 6 6 4 3 4 4 5 8 9 10 11 12
21 21 21 20 18 18 16 15 15 16 17 17 17 18 15 14 14 14 13 13 15 15 14 12 11 11 11 11 10 9 8 7 7 6 5 4 4 4 5 7 9 10 10 12
24 24 23 21 20 19 18 17 17 17 16 15 14 17 16 15 15 14 14 13 15 15 15 13 11 10 10 10 10 9 8 7 7 6 6 5 4 4 5 7 9 10 11 12
25 25 23 22 22 21 20 19 19 18 15 11 12 15 14 14 15 15 14 13 15 15 14 14 12 11 9 9 9 8 7 8 7 6 6 5 5 5 6 7 9 11 12 13
28 25 24 23 22 21 20 20 19 18 15 14 14 14 12 11 13 14 14 13 14 15 14 13 12 11 9 9 9 8 7 7 7 6 5 5 5 6 6 7 8 11 12 13
29 26 24 24 22 21 21 20 19 19 18 18 17 15 13 12 12 12 13 12 12 13 13 12 11 10 9 9 8 8 8 7 7 6 5 5 4 5 6 7 8 10 12 13
29 28 26 25 24 22 20 19 21 21 20 20 19 17 14 13 14 14 14 12 12 13 12 11 11 10 9 9 8 8 8 7 7 7 7 6 5 5 6 6 7 9 11 13
29 29 27 28 27 22 21 21 22 22 22 22 21 18 17 15 16 15 14 13 13 13 12 11 10 9 9 9 8 8 8 7 7 8 7 7 6 6 6 6 7 8 9 10
28 29 29 29 26 24 22 21 21 23 22 23 24 21 19 18 17 16 16 15 14 12 12 12 10 10 9 9 9 9 9 8 8 8 8 7 7 6 6 6 7 8 10 11
29 31 31 30 29 26 24 22 21 21 23 24 25 23 21 21 20 18 18 18 15 14 14 12 11 10 10 10 10 10 9 9 9 9 8 8 8 7 7 7 8 9 10 12
28 31 32 31 28 27 25 23 22 22 24 25 25 24 23 23 21 20 19 18 16 16 15 14 12 12 11 11 12 12 11 10 10 10 9 9 9 9 10 9 10 10 10 11
30 31 32 32 32 30 28 25 23 23 23 24 24 25 24 23 23 21 20 19 18 18 17 15 13 13 13 12 13 13 12 12 12 11 11 11 11 11 11 11 11 11 11 12
34 33 32 32 34 35 32 28 26 25 23 24 24 24 24 24 23 24 23 21 20 20 19 17 16 14 14 14 14 14 13 13 13 13 13 13 12 13 12 12 12 12 13 13
37 34 33 33 35 36 37 32 29 27 26 25 25 23 25 25 25 24 23 22 22 20 20 19 18 16 16 16 15 15 15 15 15 15 15 14 15 14 14 13 14 14 15 15
38 36 35 34 36 40 36 34 32 30 27 26 26 25 25 26 26 25 25 24 22 22 22 21 19 19 18 18 17 17 17 17 17 17 17 17 17 16 16 15 16 15 16 16
40 39 37 36 38 39 38 36 35 33 31 29 29 27 27 27 27 27 26 25 24 24 23 22 21 20 20 19 19 18 18 19 19 19 19 19 18 18 18 18 18 18 17 17
42 40 39 37 38 40 38 36 37 37 35 33 32 30 29 29 29 28 28 27 26 26 26 23 21 20 20 20 20 20 20 20 20 20 19 19 19 19 19 19 19 19 19 19
42 42 40 39 38 39 38 37 38 40 38 34 33 33 32 31 29 28 28 28 28 26 25 25 23 22 21 21 21 21 21 21 21 21 21 21 20 20 20 20 20 20 21 21
43 42 41 40 39 39 37 38 39 40 37 35 34 34 33 32 29 29 29 28 27 27 27 25 24 23 23 22 22 21 21 22 22 22 22 21 21 21 20 21 21 21 22 22
44 43 41 41 40 37 37 38 39 39 38 36 34 33 33 33 29 29 27 26 27 26 26 26 25 23 23 23 23 23 23 23 23 23 22 22 22 22 22 22 22 22 22 22
44 44 42 40 39 38 38 38 38 39 39 37 36 34 32 32 31 31 28 27 27 26 26 24 24 23 22 23 23 24 23 23 23 23 23 23 23 22 23 23 22 22 22 23
42 42 41 41 39 38 37 37 38 38 38 38 36 35 34 33 32 30 29 28 28 27 25 25 25 23 23 24 24 25 25 24 24 24 24 24 24 23 23 23 23 23 24 24
40 39 38 38 37 36 37 37 37 37 37 37 36 36 34 34 34 31 29 29 28 26 25 25 26 26 25 24 25 25 26 25 24 24 24 24 24 23 23 23 24 24 24 24

GEFSCGP_500_meanwind_156.txt.gz
Wind_Speed
17 16 15 14 14 13 12 12 11 11 11 9 8 7 6 5 7 8 9 9 11 13 14 15 15 15 13 12 10 10 9 9 8 7 6 4 3 2 3 6 8 8 9 9
19 18 18 17 15 15 14 13 14 14 13 12 11 9 8 7 7 8 9 10 11 13 14 14 14 15 14 11 10 9 9 8 7 6 5 3 3 3 4 6 8 9 9 9
21 20 20 18 17 16 15 15 16 16 15 15 13 10 9 9 9 9 10 11 12 12 14 14 14 14 12 10 9 9 9 8 7 6 4 3 3 4 5 6 7 9 10 10
24 23 22 20 19 18 17 18 18 18 17 17 15 12 10 10 11 11 11 12 12 12 13 14 13 13 11 10 9 10 9 8 6 6 5 4 4 4 5 6 7 9 10 10
25 25 23 22 21 20 19 20 20 19 18 18 17 15 13 12 12 12 12 11 10 11 12 14 14 13 12 11 10 10 9 7 6 5 5 5 4 4 4 5 7 9 10 11
28 27 24 23 23 21 21 21 21 20 19 19 18 17 14 13 12 13 12 11 10 11 13 15 14 12 12 11 10 10 8 7 6 6 6 5 5 5 6 6 7 8 10 12
29 27 25 24 24 23 22 22 22 21 21 20 18 17 14 13 12 12 12 11 10 11 13 14 13 11 11 11 10 9 8 7 7 7 7 6 6 6 7 6 7 8 9 11
30 28 27 26 25 24 24 23 23 23 22 20 19 18 14 13 11 11 11 11 10 11 13 12 12 12 11 10 9 9 8 7 7 7 7 6 6 6 6 6 7 8 10 11
31 29 28 28 27 27 25 25 24 25 23 22 20 18 15 13 11 10 10 9 9 10 10 11 12 12 11 10 10 9 9 8 7 7 7 6 6 6 6 6 7 9 10 11
33 31 30 30 30 29 27 26 26 25 25 23 21 18 15 14 13 11 10 10 9 10 11 11 12 12 11 10 9 10 9 9 8 8 7 6 6 6 6 6 7 8 9 10
35 34 32 32 32 30 29 28 27 26 25 23 20 17 15 15 14 13 12 11 11 11 11 11 12 12 11 11 10 10 10 9 9 8 8 8 7 7 6 6 6 7 9 10
36 36 34 33 33 32 31 29 28 27 25 23 20 16 15 16 15 14 13 12 12 12 11 11 13 13 12 11 11 11 10 9 9 9 9 8 8 7 7 7 7 7 8 8
36 37 36 35 34 33 31 30 28 27 26 24 21 16 16 17 17 15 14 13 13 12 12 12 13 13 12 12 12 11 10 10 9 9 9 9 9 9 8 8 8 8 9 10
36 36 35 33 31 31 31 30 29 28 26 24 21 18 17 17 18 17 16 15 14 13 13 13 12 13 13 12 12 11 11 10 10 10 10 9 10 10 9 9 10 10 11 11
34 34 33 32 32 32 32 31 30 28 26 24 21 19 17 17 17 17 16 15 14 13 13 13 13 14 13 12 12 12 11 11 11 11 11 11 11 12 12 12 12 12 13 14
33 33 31 31 31 33 33 33 32 30 28 26 23 20 18 18 17 17 16 16 16 15 14 14 14 14 14 12 12 13 13 13 13 12 12 13 13 14 14 14 14 15 15 15
33 32 31 29 29 32 34 33 33 31 29 27 24 21 20 18 18 17 17 17 17 16 16 16 16 16 15 14 13 14 14 14 14 14 15 15 15 16 16 15 16 17 17 17
34 32 31 30 29 32 31 31 32 32 30 28 26 24 22 20 19 18 18 17 17 18 17 17 17 17 16 16 15 15 15 15 16 16 16 16 16 17 18 17 18 18 19 19
36 34 33 32 32 31 31 31 31 31 30 29 27 26 24 22 21 20 19 18 19 18 18 18 18 18 17 17 17 17 17 17 17 17 17 17 18 18 18 19 19 20 20 20
39 38 36 35 34 33 31 31 31 31 31 29 28 27 26 24 22 20 20 20 20 20 20 20 20 19 19 19 19 19 20 19 19 19 19 19 19 19 19 20 20 20 21 21
42 41 40 39 38 36 33 32 32 32 31 30 29 28 27 25 24 22 22 23 23 22 22 23 22 21 21 21 21 21 21 20 20 19 19 20 20 20 20 21 22 22 22 22
44 44 44 42 40 39 35 33 33 33 32 32 30 29 28 27 26 25 24 24 24 24 24 24 23 23 23 22 22 20 20 20 20 20 20 20 21 21 22 23 23 23 24 24
45 45 45 44 42 39 36 35 34 33 33 32 32 31 30 29 28 27 27 27 26 25 25 26 25 25 23 23 21 20 20 21 21 22 21 21 22 23 24 24 24 25 25 25
45 45 45 44 43 40 37 35 34 32 32 32 32 32 31 30 30 30 29 28 28 27 26 25 25 25 24 23 22 21 21 21 21 22 22 23 24 24 24 25 25 26 26 26
44 44 44 44 43 40 38 36 34 33 32 32 32 32 31 30 30 29 29 29 29 27 25 25 26 25 25 25 24 22 21 21 21 22 22 23 23 24 24 25 25 25 26 26
43 43 43 42 42 40 38 37 36 35 34 33 32 31 30 30 30 29 28 28 27 27 26 26 25 25 24 24 23 22 21 21 22 22 23 23 24 24 25 25 25 25 26 26

GEFSCGP_500_meanwind_162.txt.gz
Wind_Speed
14 14 13 12 10 9 8 6 5 5 3 3 3 4 5 5 5 6 8 9 10 11 12 12 12 12 12 12 11 9 8 8 8 6 5 4 3 3 3 4 6 7 8 8
17 16 15 14 12 10 9 8 7 6 4 4 4 5 6 6 6 6 8 10 11 11 11 12 12 12 12 11 10 9 8 8 8 6 5 4 4 3 3 4 5 6 7 7
19 18 17 15 14 12 11 10 9 7 6 5 5 7 7 7 7 7 9 10 11 11 11 13 12 12 12 10 9 9 9 9 7 6 5 4 4 4 5 5 6 6 7 8
22 20 18 17 16 14 14 12 11 9 8 8 5 6 10 8 9 9 10 10 10 10 11 12 12 13 11 10 10 9 9 9 8 7 6 6 5 6 5 6 7 7 6 7
23 21 20 19 18 17 16 14 12 11 10 9 8 6 10 10 10 10 10 10 9 10 11 12 12 13 11 10 9 8 8 8 7 7 7 6 6 6 6 7 8 8 8 8
26 23 22 21 20 19 17 15 14 13 12 11 10 8 9 11 11 11 11 10 10 10 11 11 11 12 11 10 9 8 8 7 7 7 7 7 6 6 7 7 7 8 8 9
27 25 24 22 21 20 19 17 15 14 13 13 12 10 11 12 11 11 11 10 10 10 9 10 11 11 10 9 9 8 8 7 6 7 6 6 5 5 6 6 7 7 7 8
28 27 25 24 23 22 20 19 16 14 12 13 14 12 12 12 11 11 10 9 9 9 10 10 10 11 10 9 9 8 8 7 6 6 6 6 5 6 6 6 6 7 7 9
29 29 26 25 24 24 23 21 19 17 16 14 15 14 13 12 11 11 9 9 9 9 10 10 10 10 10 9 9 9 9 7 7 6 6 6 5 5 6 6 6 6 8 9
31 30 28 27 26 26 25 23 22 19 17 15 15 14 13 13 12 11 10 10 10 10 10 11 10 10 10 10 10 10 9 8 8 7 7 6 5 5 6 6 6 7 8 9
32 31 30 29 28 27 25 24 23 21 20 16 13 14 14 13 12 11 11 11 11 12 12 12 11 11 11 11 10 10 10 9 9 8 7 7 6 6 7 7 8 8 8 9
32 32 31 30 29 28 27 25 24 23 21 19 15 15 15 13 12 12 12 13 13 12 13 13 12 12 12 11 11 10 10 10 10 9 9 8 8 8 7 7 8 9 9 10
33 33 32 31 31 29 28 26 25 23 23 21 17 15 16 14 14 14 14 14 13 13 13 13 13 13 12 11 11 11 11 11 10 11 10 10 10 9 9 9 9 10 11 11
33 32 31 28 28 29 28 27 26 25 23 21 19 17 17 16 16 16 15 15 14 14 13 13 14 14 13 12 12 12 12 12 12 12 12 12 11 11 11 11 10 11 11 12
32 32 31 31 31 30 29 28 27 26 24 22 20 18 18 17 16 16 15 15 15 14 15 15 15 14 13 13 13 13 13 13 13 14 13 13 13 13 13 13 13 13 13 14
32 31 30 30 30 29 29 29 28 27 25 23 21 20 18 17 16 16 15 15 15 15 16 16 15 14 15 15 15 15 14 14 14 15 15 15 15 15 15 15 15 15 15 15
31 30 30 29 29 30 30 29 28 27 25 24 22 21 20 18 17 16 16 16 16 16 17 17 16 16 16 16 16 16 15 15 15 16 16 16 16 16 16 17 17 17 17 17
32 31 30 29 30 29 29 28 27 26 26 25 24 23 21 20 19 17 17 17 17 17 17 17 18 18 18 17 16 16 17 16 17 17 17 17 17 17 17 18 18 18 18 19
32 32 31 30 28 29 30 28 26 26 26 25 25 24 23 21 20 19 18 19 19 18 18 18 18 18 18 18 18 19 18 19 19 19 18 18 18 18 18 19 19 20 20 20
33 32 32 32 29 27 30 28 26 26 27 26 25 25 24 23 22 21 20 20 20 19 19 19 20 20 19 19 20 20 20 21 21 21 20 19 19 20 20 20 21 21 21 21
35 34 33 32 31 29 32 28 26 27 27 26 25 25 25 24 24 22 21 21 21 21 21 21 21 21 21 21 21 22 22 22 22 22 21 21 21 21 22 22 22 22 23 23
36 36 35 34 32 33 32 29 29 28 28 27 26 26 25 24 24 23 23 23 23 22 22 22 22 23 23 23 23 24 24 24 23 23 22 23 22 22 22 22 23 23 24 25
38 38 37 36 36 35 32 30 29 28 28 28 28 27 27 26 25 24 25 25 25 24 23 24 24 24 25 25 25 25 25 25 25 24 23 23 23 23 23 24 24 25 26 25
39 38 38 37 37 35 33 32 31 30 29 29 29 28 28 27 26 26 25 25 25 26 26 26 26 26 26 27 27 27 26 26 26 24 24 23 23 23 24 25 25 25 26 26
39 38 37 37 36 36 35 34 33 32 31 30 29 29 28 28 27 27 26 26 27 27 28 28 28 28 28 28 27 27 27 26 25 24 24 23 23 23 24 24 25 26 26 26
38 38 38 38 36 35 35 34 33 33 32 31 30 30 29 28 28 28 27 27 27 27 28 29 28 28 28 28 27 27 27 27 26 25 24 24 24 25 25 25 26 26 26 26

GEFSCGP_500_meanwind_168.txt.gz
Wind_Speed
13 13 10 6 6 7 8 8 7 7 9 4 4 6 8 10 10 11 12 14 15 16 16 16 17 17 17 17 16 14 13 14 13 11 10 8 6 6 5 4 4 4 5 6
14 13 11 11 12 12 11 8 5 8 9 5 4 6 8 10 11 12 13 13 14 15 15 16 16 17 18 18 17 15 14 13 12 12 11 9 8 6 5 5 4 4 5 5
14 11 13 14 13 12 10 8 7 9 9 5 5 7 10 12 13 13 13 13 13 14 15 16 16 17 18 18 17 15 14 13 12 11 11 10 8 7 6 6 5 6 6 6
17 16 15 14 13 12 9 10 11 10 7 5 6 11 13 13 12 13 14 14 14 14 15 15 16 17 18 18 17 15 14 13 12 11 11 10 9 8 7 6 7 7 7 7
19 19 18 16 14 13 12 12 11 9 8 7 6 10 13 13 10 11 13 14 15 15 15 15 15 17 17 17 16 15 15 13 12 12 11 10 9 9 8 7 7 7 7 7
21 20 19 17 16 15 14 12 9 7 7 8 7 9 12 13 11 12 14 15 15 14 14 14 15 17 17 17 15 15 15 14 13 12 11 10 9 8 8 7 6 7 7 7
23 22 21 19 17 16 15 12 9 7 8 8 8 9 13 15 15 15 15 15 15 14 14 13 14 16 17 17 15 14 14 13 13 13 11 11 10 9 8 7 6 7 6 6
23 23 22 21 19 17 15 13 11 8 8 8 8 10 13 15 16 16 15 14 13 13 13 13 14 15 16 16 15 15 14 13 13 13 12 11 10 9 9 8 7 7 6 7
20 20 21 22 20 19 16 15 13 12 13 13 13 10 14 17 16 15 13 13 13 12 13 13 13 14 15 15 16 16 15 14 14 13 12 11 11 10 9 8 8 7 7 7
21 18 19 21 22 21 19 16 15 17 16 14 13 12 14 15 15 15 14 13 12 12 13 13 13 13 14 16 16 16 15 14 14 13 12 12 11 11 10 10 10 9 8 8
27 22 20 23 23 21 21 20 19 18 17 14 14 15 14 15 15 15 15 14 13 13 13 14 14 14 15 16 16 15 15 15 15 14 13 12 12 12 11 10 10 10 10 10
30 26 22 23 23 21 21 20 20 21 20 18 15 16 15 14 14 14 15 15 14 14 13 15 15 15 15 16 17 16 16 16 16 15 14 14 13 13 13 12 12 11 11 11
32 30 27 23 22 22 22 21 20 19 18 17 15 17 19 16 16 17 17 16 15 15 14 15 15 16 16 16 17 17 16 16 16 15 15 15 14 14 14 14 13 13 13 13
33 33 30 24 20 20 21 22 21 21 20 19 17 19 19 19 17 19 18 17 16 16 16 15 15 16 16 17 16 17 17 17 17 17 16 16 15 15 15 14 14 14 14 14
36 35 34 29 22 19 20 20 21 23 23 20 18 18 19 20 20 21 20 19 17 17 17 16 16 16 17 17 17 17 18 18 18 18 18 17 17 16 16 16 16 16 15 15
36 36 35 33 28 23 22 21 20 21 22 23 20 19 21 23 24 24 22 21 19 18 17 17 17 17 18 17 17 18 18 19 19 19 19 18 17 16 17 17 17 17 17 17
35 35 34 33 30 27 27 25 22 22 22 22 22 23 24 27 27 27 24 22 21 20 19 19 18 19 19 17 18 18 19 20 20 20 20 19 19 19 19 19 19 18 18 19
35 34 34 31 30 31 28 25 24 23 22 22 23 26 29 31 30 28 26 23 22 21 21 20 20 20 19 19 20 20 20 20 21 21 21 21 21 20 20 21 21 20 20 20
35 34 33 32 29 28 27 25 23 23 24 25 26 28 29 29 29 28 26 25 24 23 22 22 21 21 21 21 21 22 22 21 22 22 22 23 23 22 22 22 22 21 20 21
36 35 34 33 30 26 25 25 25 25 28 29 30 30 29 28 29 27 26 25 24 24 23 23 23 23 23 23 23 23 23 23 23 23 24 24 24 24 24 23 23 22 22 22
36 35 35 33 31 28 28 26 27 28 30 31 30 30 30 29 29 27 26 25 25 25 24 24 24 24 24 24 24 24 24 24 25 25 25 25 25 25 25 25 24 23 23 23
35 35 35 34 32 30 30 29 31 32 31 31 31 29 29 29 29 28 28 26 26 26 26 26 25 25 25 25 25 25 25 26 26 26 26 26 26 27 26 26 25 25 25 25
33 33 32 34 37 37 35 35 35 34 33 31 31 30 30 30 29 29 29 28 28 27 27 27 27 27 27 26 26 26 26 27 27 27 27 27 27 28 26 26 26 26 26 26
36 36 35 37 39 40 39 38 36 35 34 33 33 32 32 31 30 30 30 30 29 28 28 28 28 28 28 27 27 28 28 29 29 28 28 28 29 28 27 27 27 27 27 27
37 37 38 39 40 41 41 39 37 36 34 33 33 33 33 32 31 31 31 30 29 29 29 29 29 29 29 29 29 29 30 30 30 29 29 29 29 29 28 28 28 28 28 27
37 39 40 42 42 41 41 41 37 36 36 35 34 34 34 33 32 32 31 31 31 31 30 30 30 30 30 30 31 31 31 30 30 30 30 29 29 29 29 29 28 28 28 28

GEFSCGP_500_meanwind_174.txt.gz
Wind_Speed
19 18 17 16 14 11 9 7 4 1 5 7 8 8 9 10 12 14 15 16 16 17 17 17 17 17 17 17 16 17 16 14 13 12 11 10 8 6 4 3 1 1 2 2
19 18 17 17 15 12 10 8 6 4 3 3 5 7 9 12 12 13 15 15 16 16 16 16 17 17 17 17 17 16 16 14 13 12 11 10 9 8 5 4 2 2 2 2
19 19 19 18 16 13 12 11 9 7 5 3 4 6 9 12 12 13 14 14 15 16 16 16 16 16 17 17 17 16 15 15 13 11 11 9 9 8 7 6 4 3 3 3
21 21 20 19 16 14 14 14 13 10 8 6 7 7 9 11 12 12 12 13 15 15 15 15 15 15 16 16 16 15 14 14 14 12 10 9 8 8 8 8 5 4 3 4
22 21 20 18 16 15 15 16 15 13 11 10 10 10 9 10 11 11 13 14 16 15 15 15 15 14 15 15 15 15 15 14 13 13 11 9 9 8 8 7 6 4 3 3
23 22 21 19 17 16 16 16 14 13 11 9 9 11 11 10 10 12 14 15 15 15 14 14 14 14 14 14 14 14 14 14 13 12 11 10 9 9 8 8 7 5 4 3
24 23 21 20 18 18 17 16 14 13 11 9 8 11 12 11 11 12 14 14 15 13 13 13 14 14 14 14 14 14 14 14 13 12 12 11 10 10 9 8 7 6 4 4
25 23 21 20 18 17 17 16 16 14 12 10 9 10 11 10 10 11 12 13 14 12 11 11 12 12 13 14 13 14 13 13 13 12 12 11 10 10 9 8 7 7 6 5
26 23 21 19 19 18 18 17 16 15 14 12 9 10 10 10 11 11 11 12 12 12 12 10 11 12 12 13 13 13 13 12 12 12 12 11 10 10 10 9 8 7 6 5
28 25 23 21 21 20 19 18 18 17 16 14 12 11 11 13 12 12 11 11 11 12 13 11 11 11 13 13 13 13 13 12 12 12 12 11 11 10 10 10 9 9 8 6
29 28 26 25 23 19 20 20 19 18 18 17 15 13 11 12 13 13 12 12 11 12 14 13 12 12 13 12 13 13 13 12 12 13 12 12 11 11 11 11 10 9 8 7
30 30 28 26 23 20 19 20 20 19 18 19 19 16 13 13 13 13 14 14 12 12 13 13 13 14 13 12 12 12 12 12 12 13 13 13 12 11 11 11 11 10 9 9
31 32 30 27 25 23 21 19 20 20 20 20 20 18 16 15 15 15 16 16 14 13 13 14 14 13 12 12 12 12 12 12 12 13 14 13 13 12 12 12 12 11 11 11
32 33 32 29 25 23 21 19 19 21 22 21 20 18 18 17 17 18 17 16 15 14 15 15 16 15 13 12 12 12 12 12 12 13 14 15 14 14 13 13 13 12 12 11
34 35 34 31 28 25 23 21 19 20 21 22 20 19 18 18 19 19 18 18 17 17 17 17 16 15 14 13 13 13 13 13 13 14 14 15 15 15 15 14 13 13 13 13
35 35 34 33 31 29 27 24 21 20 20 22 23 22 20 20 21 20 20 19 19 19 19 18 18 16 15 15 15 15 13 14 14 15 15 16 16 16 16 15 14 14 14 14
36 35 35 34 34 32 30 27 24 22 20 22 24 24 23 22 22 22 22 22 22 23 23 20 19 17 16 16 17 16 15 16 16 16 16 17 17 17 17 16 16 15 15 15
36 35 35 35 35 36 30 28 27 25 25 25 25 26 25 25 25 26 25 25 25 25 24 22 21 19 18 17 17 17 17 17 17 17 18 18 18 18 18 18 17 17 16 16
37 36 36 36 37 36 34 31 29 28 27 27 27 28 28 27 28 28 27 26 26 26 25 23 22 21 20 19 19 19 18 19 19 19 19 19 19 19 19 19 19 18 18 18
38 37 37 38 38 38 35 34 32 32 32 31 30 30 30 30 30 29 28 28 27 27 26 25 23 23 22 21 21 21 20 20 20 20 20 20 20 20 21 20 20 20 20 19
39 38 38 38 38 38 36 35 35 36 34 33 32 32 32 32 31 30 30 30 29 28 27 26 24 24 23 22 22 21 21 21 20 21 21 21 21 23 22 22 22 22 21 21
42 39 38 38 38 38 35 36 37 37 35 34 34 33 32 31 31 31 30 30 29 29 28 26 25 24 23 23 23 23 23 22 22 23 23 22 23 23 23 23 23 23 22 22
42 41 39 38 38 36 35 37 38 38 37 35 34 34 33 31 30 30 31 30 29 29 29 27 26 25 25 25 25 25 25 25 25 25 25 24 24 24 24 24 24 24 23 22
42 41 39 39 37 36 36 37 38 38 37 36 36 36 35 33 31 31 30 29 29 30 29 28 27 27 27 26 26 26 26 26 26 27 27 27 26 26 26 26 25 24 24 23
41 41 40 39 38 37 37 37 37 38 38 38 37 36 34 33 32 32 31 30 30 30 29 28 28 28 27 27 27 27 28 28 28 28 28 28 28 28 27 26 25 25 24 24
40 40 39 37 37 36 36 36 36 37 37 37 36 36 35 34 33 32 32 31 31 30 29 29 29 28 28 28 29 29 29 29 29 29 29 29 28 28 27 26 26 25 25 25

GEFSCGP_500_meanwind_180.txt.gz
Wind_Speed
19 17 16 15 13 10 7 6 4 2 2 3 5 7 8 10 11 13 14 15 16 17 17 17 17 18 17 17 16 16 14 13 12 11 10 10 9 7 5 4 3 2 2 2
21 19 18 17 14 12 9 7 5 3 1 2 3 5 6 8 9 10 12 13 14 15 15 16 16 16 17 16 16 16 15 14 12 10 9 9 9 7 7 5 4 3 2 2
23 22 21 19 17 14 11 9 6 5 4 3 3 3 5 7 8 9 11 12 13 14 14 14 14 15 16 15 15 15 15 14 13 11 10 9 8 7 6 5 5 4 3 3
25 25 23 21 19 16 14 11 9 7 7 6 5 4 4 6 7 8 10 11 12 13 13 13 14 14 15 15 14 15 14 13 12 11 10 9 8 7 6 5 5 5 4 4
27 26 24 23 20 18 16 14 12 11 10 9 7 7 5 6 7 7 9 11 11 14 13 13 14 14 14 14 14 14 13 13 12 12 10 9 8 8 7 6 6 5 4 3
28 27 25 24 22 20 18 16 14 14 12 11 9 8 7 6 7 7 9 11 12 14 12 12 13 14 14 13 13 13 13 13 12 11 11 10 9 8 7 7 6 5 4 4
29 28 27 25 24 22 20 17 16 15 14 13 11 10 7 7 6 7 9 11 13 13 12 11 13 13 13 13 13 12 12 12 12 12 11 10 9 8 8 7 7 6 5 5
29 28 27 26 25 22 21 19 18 17 15 14 14 12 9 8 7 7 9 11 11 12 11 11 12 12 13 12 13 13 12 12 12 11 11 10 10 9 8 8 8 8 7 6
29 28 27 27 25 24 23 22 20 18 17 17 16 13 11 8 7 7 9 10 10 12 12 12 12 12 13 13 12 13 13 12 12 11 11 10 10 9 8 8 9 9 9 8
30 29 28 28 27 25 24 23 21 20 19 18 17 15 12 10 8 9 9 9 10 12 12 12 12 12 12 12 14 13 13 12 11 11 11 10 10 10 10 9 9 10 9 8
31 30 30 28 28 26 25 24 22 21 21 19 18 15 13 12 11 9 9 9 10 11 12 12 13 13 13 13 14 13 12 12 12 12 12 12 11 11 11 11 11 11 10 10
32 32 31 30 29 28 26 24 23 22 21 20 18 15 14 13 12 10 10 10 11 12 12 12 13 13 14 14 14 13 12 13 13 13 13 12 12 12 12 12 12 12 12 11
33 33 32 32 31 29 27 25 23 23 22 21 19 16 15 14 13 12 11 11 11 11 11 11 13 15 15 15 14 13 13 13 13 13 13 13 13 13 13 13 13 13 13 12
34 33 33 32 30 29 28 26 25 24 24 22 21 18 16 15 14 14 13 12 11 11 11 12 14 15 15 15 14 13 13 13 14 14 15 15 14 14 14 14 14 14 13 13
35 34 33 31 31 30 29 27 27 25 24 23 21 20 18 16 15 14 14 13 12 11 12 13 14 15 15 15 14 14 14 14 15 15 15 16 15 14 15 15 15 15 14 14
35 34 33 32 31 31 30 29 28 27 25 23 21 19 18 17 16 15 15 14 13 13 14 15 15 16 16 16 16 16 16 16 16 16 16 16 16 15 15 16 15 15 16 15
34 34 33 33 33 33 33 30 29 28 26 24 22 19 18 17 17 16 16 16 15 14 15 15 17 18 18 17 17 17 18 18 18 18 18 18 17 16 16 16 16 16 16 16
34 34 33 33 34 36 34 32 31 29 28 26 24 22 20 19 18 18 17 17 17 17 17 18 19 19 19 19 20 19 19 19 20 19 18 18 18 18 17 17 17 17 17 17
34 34 34 34 35 36 36 34 33 32 30 28 26 24 22 21 20 19 18 18 18 19 19 20 21 20 20 21 21 21 20 20 20 20 19 19 19 19 19 19 19 19 18 18
35 35 35 35 35 36 35 35 34 33 32 30 28 26 25 23 22 20 19 20 20 21 21 21 22 22 22 23 22 22 22 22 22 21 20 20 21 21 20 20 20 19 19 20
37 37 37 36 36 35 34 34 33 34 32 31 30 28 27 26 24 22 22 23 23 23 23 24 24 25 25 25 24 24 24 24 24 22 20 21 22 22 21 22 22 22 22 22
39 39 38 38 37 36 34 34 34 34 33 32 31 30 29 28 26 26 25 25 26 26 26 27 27 27 26 26 26 25 25 25 24 24 23 23 23 23 23 23 23 24 24 24
42 41 40 39 38 37 36 35 35 35 34 34 33 32 31 30 29 28 28 27 27 28 28 29 28 28 28 27 27 27 26 25 25 24 24 24 24 24 25 24 24 24 25 25
43 43 42 41 40 38 37 36 35 35 35 35 34 34 33 32 31 31 30 30 30 30 30 31 30 29 30 29 29 29 27 26 26 25 26 26 26 26 26 25 25 25 25 25
45 44 43 42 41 40 39 38 36 35 35 34 35 35 35 34 33 34 34 33 32 32 32 31 30 31 30 29 28 28 28 28 27 27 27 27 27 28 26 25 26 26 26 26
45 44 44 43 41 40 39 38 37 36 35 34 33 34 34 35 35 35 35 35 35 34 33 32 31 31 31 30 30 29 29 29 28 28 28 28 28 28 27 26 26 27 27 27

GEFSCGP_500_meanwind_186.txt.gz
Wind_Speed
19 17 15 14 12 10 9 8 6 5 4 4 5 6 7 8 9 11 13 14 15 16 15 15 16 16 15 15 15 14 13 13 12 11 10 8 7 5 4 3 2 2 1 2
20 18 17 15 13 11 9 7 5 4 3 3 3 4 5 7 8 10 12 13 13 14 15 15 15 15 15 15 15 14 13 13 12 11 10 9 7 6 5 4 3 2 1 2
22 20 17 16 14 12 10 8 6 4 2 1 2 3 4 6 7 9 10 11 12 13 14 14 14 14 14 15 14 13 13 12 12 11 10 9 7 6 5 5 4 3 3 3
24 22 19 17 16 13 11 9 7 5 2 2 1 2 6 5 6 8 9 10 12 12 13 12 13 13 14 14 14 13 13 12 12 11 10 9 8 7 6 6 5 4 4 3
25 23 21 20 17 15 13 11 9 7 5 3 2 1 6 6 6 7 8 9 11 12 12 11 12 12 12 13 13 13 13 13 12 11 10 9 8 8 7 6 5 5 5 4
27 25 24 22 19 17 15 12 10 8 6 6 5 2 5 6 6 7 7 8 10 11 11 10 11 12 13 13 13 13 13 13 12 11 10 9 9 8 8 7 7 6 6 6
29 28 26 24 21 19 17 14 10 9 8 8 6 4 5 6 6 6 6 8 9 9 10 10 11 12 12 13 13 13 13 13 12 11 11 10 9 9 8 8 8 8 7 8
29 29 28 26 24 21 19 16 13 10 9 9 8 6 6 5 6 6 6 7 8 9 10 10 11 12 12 12 12 12 12 12 12 11 11 10 10 9 9 9 9 9 9 8
30 29 29 28 26 24 22 19 16 13 12 9 9 8 7 7 6 6 7 7 7 9 10 10 11 11 12 11 12 12 12 12 11 11 11 11 10 9 9 9 9 10 10 9
30 30 30 29 27 26 24 21 19 16 14 11 11 9 8 8 7 7 8 8 9 10 11 10 10 10 11 12 11 12 12 12 12 11 11 11 10 9 10 10 10 10 10 10
31 30 30 30 29 28 26 24 22 18 16 12 10 10 11 10 9 8 9 9 10 11 11 10 11 11 11 11 11 11 12 12 11 11 12 11 11 10 11 11 11 11 11 11
32 31 30 30 30 28 26 25 23 21 19 16 13 12 13 12 11 10 10 10 11 11 10 10 10 10 11 10 10 12 12 12 12 12 13 13 12 11 11 12 11 12 12 11
33 33 31 31 31 30 29 26 24 21 20 18 15 13 14 12 12 12 11 11 11 11 11 10 10 10 10 10 11 12 12 13 13 14 14 14 14 13 12 13 13 13 12 12
33 33 31 28 27 28 29 28 26 23 22 20 17 16 15 14 13 13 12 12 12 11 11 10 10 11 11 11 11 12 13 13 14 14 15 15 15 14 14 14 14 13 13 13
33 33 32 31 30 29 28 28 26 25 23 20 19 18 16 15 15 15 14 13 12 12 12 11 11 11 12 12 13 13 14 15 15 16 16 16 17 17 16 16 16 15 15 14
33 32 31 32 31 30 29 28 27 26 24 22 20 19 18 17 16 16 15 15 14 14 13 13 13 13 13 14 15 15 16 16 17 18 18 18 18 18 18 17 17 15 16 16
32 31 30 30 30 30 31 29 27 26 25 23 21 21 20 18 17 17 16 16 16 16 16 15 14 15 15 16 17 17 18 18 19 20 20 19 19 19 18 17 18 18 18 17
33 31 30 29 30 31 29 29 28 27 26 25 24 23 21 20 19 18 17 17 18 17 17 17 16 16 17 18 18 19 20 20 21 21 21 20 20 19 18 18 18 19 19 18
34 32 31 30 30 30 31 29 27 27 27 27 26 25 23 22 20 20 19 18 18 18 18 19 18 18 18 19 20 21 22 22 22 21 21 21 21 20 19 19 19 20 20 19
35 33 33 32 30 29 30 28 27 28 29 28 27 26 25 24 23 22 21 20 20 19 19 20 20 20 20 20 21 23 23 23 23 23 22 22 21 20 20 20 20 21 22 21
35 34 34 33 32 30 31 29 27 28 28 28 28 27 26 25 25 24 23 22 22 22 22 23 23 23 22 23 23 24 24 23 23 23 23 23 22 21 21 21 22 22 22 21
36 35 35 34 33 33 33 30 30 29 28 28 28 28 27 27 26 26 25 25 24 24 24 25 24 24 24 24 25 25 25 25 24 24 24 24 24 23 23 23 23 23 23 22
38 37 36 36 35 35 34 31 30 30 30 30 30 30 29 29 28 27 27 27 26 26 26 26 26 25 25 26 27 26 26 26 26 26 26 26 25 25 25 24 24 23 23 23
39 38 37 37 36 35 34 33 32 32 32 32 32 31 31 31 30 29 29 28 28 28 28 28 28 27 27 27 28 28 28 27 28 28 27 26 26 26 26 25 25 24 24 25
39 38 38 38 37 35 35 34 34 34 33 33 32 32 32 32 32 31 30 30 30 30 29 29 29 29 29 29 29 30 30 29 28 27 27 27 27 27 27 27 26 26 25 26
40 40 40 39 38 37 36 35 35 35 34 33 33 33 32 32 32 32 32 32 32 32 32 31 31 31 31 32 32 32 31 30 29 29 28 28 28 28 28 27 27 27 26 26

GEFSCGP_500_meanwind_192.txt.gz
Wind_Speed
15 13 10 7 7 7 6 5 3 4 4 1 4 6 9 13 13 13 14 16 17 18 19 19 19 19 19 18 17 17 16 15 14 14 13 12 10 8 6 6 5 5 4 3
16 13 11 11 11 8 6 5 4 6 5 1 3 6 6 9 11 13 14 15 16 17 17 18 18 19 18 18 18 18 17 16 15 14 13 12 11 9 8 7 7 6 4 3
16 13 14 13 11 10 6 6 6 6 4 4 6 9 8 8 10 11 13 14 14 15 16 17 18 19 18 18 18 17 17 16 15 15 14 13 12 11 10 9 8 7 5 4
19 17 16 15 13 11 8 9 9 8 4 6 7 11 9 8 8 10 12 13 14 15 15 16 17 18 18 17 17 17 17 16 15 15 13 13 12 11 11 9 9 7 6 5
20 19 18 17 15 14 12 11 10 7 5 6 7 10 12 11 6 8 11 13 14 14 15 16 16 17 17 17 17 17 17 17 16 15 13 12 12 11 11 11 9 8 7 7
22 20 19 18 17 16 13 11 9 6 6 9 9 9 13 11 8 7 10 12 13 13 14 15 16 16 17 16 16 16 17 16 16 15 14 13 12 12 12 11 10 9 9 8
25 23 21 20 19 16 15 11 7 6 8 9 7 9 11 11 10 10 10 11 11 12 13 15 15 16 16 16 16 16 16 16 16 15 15 14 12 12 13 12 11 10 10 9
23 24 23 22 21 17 16 14 11 9 9 9 8 10 10 11 11 11 10 9 10 11 13 14 15 15 16 16 16 16 16 16 16 16 15 15 13 13 13 12 12 12 12 11
18 20 21 23 22 21 17 16 13 11 11 12 10 11 10 11 12 10 9 9 10 10 12 13 14 15 15 16 15 15 15 15 15 16 16 15 15 14 14 13 13 13 12 12
22 18 20 23 23 23 22 17 15 16 14 13 12 12 12 11 11 11 10 11 11 11 12 12 14 14 15 16 15 15 15 15 15 16 16 16 16 15 14 14 14 14 14 14
26 22 20 23 25 23 22 21 20 17 15 12 12 13 14 14 12 13 12 11 11 11 12 12 13 14 14 15 16 16 15 15 15 16 16 16 16 16 14 14 15 15 15 14
29 25 22 23 23 23 23 21 21 20 19 17 13 14 15 13 12 14 14 13 12 12 12 12 13 13 14 15 16 16 16 16 16 16 17 17 18 17 16 15 15 16 15 15
30 30 27 23 22 24 24 23 22 19 19 18 15 17 18 16 15 15 15 14 12 12 12 12 12 13 14 15 15 16 16 17 17 18 18 18 19 19 18 16 17 17 16 16
33 34 31 24 22 22 23 24 24 23 20 19 18 19 19 17 16 17 17 15 13 14 13 12 12 13 14 14 15 16 17 17 18 19 20 20 20 20 19 17 17 17 16 16
34 35 34 30 24 22 22 23 23 25 24 21 20 20 21 22 18 18 18 16 15 15 14 13 13 13 14 15 15 16 17 18 19 20 21 21 21 21 21 20 18 18 17 16
35 35 34 32 29 25 23 23 23 23 24 24 22 21 21 21 22 21 20 18 17 16 15 15 14 14 15 15 16 17 18 19 20 21 22 22 22 22 22 22 20 18 18 18
34 35 35 33 29 28 27 24 24 25 24 24 24 23 23 22 23 23 21 20 19 18 17 16 16 16 16 17 17 18 19 20 21 23 24 24 23 23 23 22 21 20 19 19
34 36 35 33 30 29 28 26 25 25 25 25 24 24 24 25 26 25 23 21 20 19 19 18 17 18 18 18 18 19 20 22 23 24 25 25 25 24 24 22 21 21 21 20
34 35 34 32 30 29 27 26 27 27 27 26 26 27 27 26 26 27 25 23 22 21 20 20 19 19 19 19 20 21 22 23 24 25 25 26 25 25 24 24 22 22 22 21
34 34 35 33 30 28 27 26 25 27 28 28 28 29 29 28 28 28 26 24 23 22 22 21 21 21 21 21 22 22 23 24 25 26 26 26 26 25 25 24 23 23 23 23
35 35 36 35 31 28 27 26 26 28 29 28 28 29 29 30 30 30 27 25 24 22 23 23 23 23 23 24 24 24 25 26 26 26 27 27 27 26 25 25 25 25 25 24
34 35 36 35 32 30 30 28 30 31 31 30 30 29 30 30 30 29 28 27 26 25 24 25 25 25 25 26 26 26 26 26 26 27 28 28 28 28 27 27 27 27 26 26
34 36 35 36 36 35 34 33 33 33 32 31 30 30 30 30 31 30 29 29 28 28 27 27 26 27 27 28 28 27 27 28 28 29 30 30 29 29 29 29 28 27 27 27
36 37 36 37 38 38 37 36 35 34 34 33 31 30 31 31 31 30 30 30 29 29 28 28 28 28 28 29 29 29 29 30 29 30 30 31 31 31 30 29 29 28 28 28
38 38 38 40 40 40 39 38 37 36 35 34 32 32 32 32 31 32 32 32 32 31 30 30 30 30 30 30 31 31 30 30 30 31 32 32 32 32 31 30 30 29 30 30
35 38 39 40 42 42 42 41 39 37 35 34 33 33 33 33 33 33 33 33 33 33 34 34 34 33 33 33 33 31 32 32 33 33 33 33 33 32 32 32 31 30 30 30

GEFSCGP_500_meanwind_198.txt.gz
Wind_Speed
21 20 17 14 11 8 6 3 1 1 3 5 8 10 12 13 15 15 15 16 17 18 18 19 20 19 19 18 17 17 16 14 13 13 12 11 10 9 8 7 5 4 3 2
21 19 17 15 12 10 7 3 1 2 4 6 8 9 11 12 14 14 13 14 15 17 18 18 18 19 18 18 17 17 16 15 14 13 13 12 10 10 9 8 7 5 4 3
21 19 18 15 13 10 8 4 3 2 4 5 7 9 11 11 12 13 13 13 14 15 16 17 17 18 18 18 17 16 15 14 14 13 13 12 11 10 9 8 7 6 4 3
23 21 19 17 16 13 11 7 5 6 6 6 7 8 11 11 11 12 12 12 12 14 15 15 16 17 17 17 17 16 16 15 14 13 13 13 12 11 10 9 8 8 6 4
26 23 21 19 17 14 13 10 9 9 8 7 8 9 9 10 10 11 11 11 11 13 14 14 15 16 16 17 17 16 16 15 14 13 12 12 12 11 11 10 9 9 7 6
26 24 22 20 18 16 15 13 12 10 9 7 7 9 8 8 10 11 9 10 10 11 12 13 13 14 15 16 16 16 15 15 14 13 12 12 11 11 10 10 10 10 9 7
26 25 23 21 19 18 18 15 14 12 10 8 8 8 8 7 9 10 8 8 9 9 11 12 13 13 13 14 15 15 15 15 14 14 13 12 12 11 11 11 11 11 10 9
27 26 24 21 20 19 19 18 16 13 11 9 9 10 9 8 8 9 7 7 8 9 10 11 12 12 12 13 14 14 14 14 14 14 14 13 13 12 12 12 11 11 10 10
27 26 24 22 21 21 20 20 17 15 13 12 11 10 9 9 10 8 7 7 7 8 9 9 10 11 11 12 12 12 13 14 14 14 14 14 14 14 14 13 12 11 11 10
28 27 27 24 23 21 20 20 20 18 15 12 11 9 9 8 8 9 7 6 7 8 8 9 9 9 10 11 11 11 12 13 14 14 14 15 15 14 15 14 13 12 11 11
28 28 27 27 26 23 22 22 23 21 18 15 14 12 10 9 8 8 8 7 7 7 8 8 8 9 9 11 11 10 11 12 13 14 14 15 16 16 15 15 14 13 12 12
30 29 28 28 27 25 24 23 23 23 21 18 16 15 12 10 9 8 8 8 9 8 7 8 8 8 9 10 10 10 11 12 13 14 15 16 17 17 17 16 15 14 13 12
32 32 31 29 29 27 26 24 24 24 24 21 19 16 14 12 10 9 9 8 8 8 8 8 8 8 9 10 10 10 10 12 13 14 15 16 17 18 18 17 16 14 13 13
32 34 34 33 30 28 27 26 25 25 26 25 22 19 16 14 13 13 11 10 9 9 9 9 9 9 10 10 10 11 11 12 13 14 15 16 17 18 19 19 18 16 14 14
33 35 35 35 33 31 29 27 26 26 26 26 24 22 19 17 17 15 13 12 11 10 10 10 11 10 11 11 11 11 12 13 14 15 17 18 18 19 20 20 20 18 15 15
36 37 36 36 35 34 33 30 28 27 26 27 27 25 22 19 18 16 15 15 14 13 12 12 12 12 13 13 12 12 13 14 15 17 18 18 19 20 21 21 20 19 17 16
39 39 37 36 36 36 37 33 30 29 29 28 28 26 24 23 22 19 19 17 16 15 14 14 14 14 14 14 14 15 15 15 16 17 18 19 19 20 21 21 20 19 18 17
40 41 39 37 36 39 37 34 32 31 29 29 29 28 27 25 24 23 22 21 19 18 16 16 16 16 17 18 17 17 17 17 17 18 19 20 20 20 21 21 21 20 20 19
39 39 39 38 38 39 38 36 34 33 31 30 30 29 28 27 26 25 24 23 22 20 19 19 19 19 20 19 19 19 20 19 18 19 20 20 21 21 21 22 21 21 21 21
40 39 40 40 39 40 38 37 35 35 35 32 31 30 30 29 28 26 25 25 24 23 23 22 22 21 21 22 21 21 23 21 20 21 21 22 22 22 23 23 23 23 22 22
41 40 41 41 40 40 38 37 37 38 37 33 32 31 31 31 29 29 28 27 27 26 26 25 24 24 23 23 23 23 23 22 22 22 22 23 23 24 24 25 26 25 24 23
42 41 41 41 40 39 37 37 38 37 35 34 33 33 32 31 30 31 30 29 28 27 27 27 26 25 24 24 24 24 23 24 24 24 24 25 25 25 26 26 27 27 27 25
41 41 40 40 40 37 36 36 36 36 35 35 34 33 32 32 31 30 30 29 29 28 27 27 26 26 25 25 25 25 25 25 25 26 26 27 27 27 27 27 27 28 27 27
41 40 40 41 41 39 37 36 37 36 36 35 35 34 34 33 33 31 29 28 28 29 29 29 28 28 28 27 27 26 27 27 27 28 28 28 28 28 28 28 28 28 28 27
41 40 41 41 41 40 39 37 35 34 35 36 37 36 35 35 33 31 29 27 28 29 29 30 29 29 29 29 29 29 29 29 29 29 30 30 30 30 29 30 30 29 29 29
42 41 41 41 41 41 39 38 36 35 35 35 36 36 36 36 35 33 31 31 31 30 31 31 31 32 32 31 31 31 31 31 31 31 32 32 32 31 31 31 31 30 29 29

GEFSCGP_500_meanwind_204.txt.gz
Wind_Speed
19 17 15 12 11 8 5 3 2 4 6 7 9 10 12 13 14 13 13 13 14 14 15 15 16 16 16 15 14 14 13 12 12 11 11 10 9 9 8 6 6 5 4 2
21 19 17 15 14 10 7 5 3 1 3 5 6 8 9 11 12 12 11 11 13 14 15 15 15 15 16 15 14 13 13 12 12 12 11 10 10 10 10 9 7 6 5 4
23 22 20 18 15 13 10 7 6 2 1 3 4 6 8 9 10 11 11 11 11 12 13 14 15 15 15 15 15 14 13 12 12 12 12 12 11 11 11 10 9 8 6 5
26 25 22 20 17 15 12 10 8 6 2 1 3 5 6 8 9 10 10 10 10 11 11 12 13 13 14 14 14 13 13 12 12 13 13 12 11 11 11 10 9 8 7 6
27 27 25 22 19 17 15 13 11 8 6 3 3 4 5 6 8 9 9 9 9 9 10 10 11 12 12 13 13 13 13 12 12 12 12 12 12 11 11 10 10 9 8 7
27 27 25 24 22 21 18 15 13 11 9 7 5 5 4 6 7 8 8 9 9 8 8 9 10 11 11 12 12 12 13 12 12 12 12 12 12 12 12 11 10 10 10 9
29 28 27 26 25 22 19 17 16 13 11 9 7 7 5 6 6 7 8 9 9 8 7 8 9 10 10 11 11 11 12 12 12 13 13 13 12 12 12 12 12 12 11 10
29 29 28 27 26 24 21 19 18 17 15 12 10 9 7 6 6 6 7 8 8 7 7 8 9 10 10 10 11 10 11 11 12 12 13 14 13 13 12 12 12 12 11 10
30 29 28 28 27 26 24 21 20 20 18 16 14 12 10 8 7 7 7 7 7 6 6 7 8 9 9 10 10 10 9 10 10 11 12 13 14 14 13 13 13 13 12 12
31 30 30 30 29 28 26 24 22 22 20 18 16 15 12 10 8 8 7 7 7 6 6 6 7 8 8 9 9 9 8 8 9 10 11 13 14 14 14 14 14 14 13 13
32 31 31 31 31 30 28 26 24 23 22 20 19 15 13 12 10 9 8 7 7 6 6 6 7 7 7 8 9 8 7 8 9 10 11 13 14 15 15 16 17 16 14 14
31 32 32 32 31 31 30 28 26 25 24 23 22 18 15 13 11 10 9 8 7 7 7 7 7 7 7 7 8 8 8 8 9 11 12 14 15 16 17 17 17 17 16 16
32 32 33 33 34 33 32 30 29 27 26 25 24 20 17 15 13 12 11 9 8 8 9 9 8 8 7 8 9 8 9 9 10 11 12 14 16 17 17 18 18 18 18 17
33 33 33 33 33 34 33 32 31 30 29 27 26 23 19 17 15 14 13 12 11 10 10 9 9 8 8 9 10 10 11 11 11 12 13 15 17 18 18 19 19 19 19 18
33 33 33 33 32 33 35 34 33 32 31 30 28 26 22 19 17 16 15 15 14 13 12 11 11 10 10 11 11 11 12 12 12 13 14 16 17 18 19 19 20 19 19 19
33 34 34 34 34 34 34 34 34 34 33 32 30 28 24 22 21 19 18 17 17 15 14 13 12 12 12 12 13 14 13 14 14 15 16 17 18 19 19 19 20 20 19 19
33 33 34 35 35 35 36 35 35 34 33 33 31 28 26 24 22 21 20 19 18 16 15 14 13 13 13 13 14 15 16 16 16 16 18 19 19 20 20 20 20 20 20 19
34 35 35 35 35 37 36 35 35 35 34 33 32 30 28 26 24 23 21 20 19 17 17 16 16 15 15 15 15 16 17 17 18 18 19 20 20 20 21 21 21 21 21 21
36 36 37 37 37 38 37 36 35 35 35 34 33 31 29 27 26 24 22 21 19 19 19 18 18 17 18 18 17 17 18 19 19 20 20 21 21 21 21 22 22 23 23 23
37 38 39 39 39 40 37 35 35 35 35 33 33 32 30 29 28 25 24 23 22 21 22 21 20 20 20 21 20 20 20 20 21 21 22 22 22 22 23 23 23 24 24 24
38 39 40 40 40 40 37 36 34 35 35 33 33 32 32 30 29 27 27 25 25 24 23 23 23 23 23 23 23 22 22 22 22 22 24 23 23 23 24 24 24 25 25 25
39 39 39 40 41 39 37 36 35 34 33 33 32 32 32 31 30 29 28 27 27 26 25 24 24 24 24 25 25 25 25 24 23 24 25 25 25 25 25 25 25 26 26 27
40 40 40 40 40 38 37 37 36 35 35 34 33 32 33 33 32 32 31 30 29 28 27 26 26 26 27 27 26 26 26 26 26 26 27 27 27 27 27 27 27 27 28 29
39 40 40 40 40 39 38 37 36 36 36 36 35 34 33 34 33 33 32 32 31 30 29 29 28 28 29 28 27 27 28 28 28 28 28 28 28 28 29 29 29 30 30 30
36 37 38 39 39 39 39 38 38 37 36 36 36 35 34 34 34 34 33 33 33 32 31 31 31 30 29 29 29 30 29 29 29 29 29 29 29 29 29 30 31 31 31 31
36 36 36 37 38 38 38 38 39 39 38 37 36 35 34 34 34 34 34 35 34 34 33 33 33 32 32 32 32 31 30 30 30 31 31 31 31 31 31 31 32 32 32 33

GEFSCGP_500_meanwind_210.txt.gz
Wind_Speed
15 13 12 10 9 8 6 4 1 2 4 6 8 10 11 13 14 14 15 14 14 15 15 15 15 14 13 12 12 11 11 11 10 10 10 9 9 9 8 7 5 5 4 3
16 15 15 13 12 10 7 5 3 2 3 4 6 7 9 11 12 13 14 14 13 13 14 15 14 14 13 13 12 12 11 11 11 10 10 9 9 8 8 7 5 4 4 4
19 18 17 15 13 12 9 7 5 5 4 3 4 6 8 10 11 12 13 13 12 12 13 14 14 13 13 13 12 11 11 11 11 11 10 10 10 9 8 7 7 6 5 4
22 21 19 17 15 13 11 10 8 6 4 3 3 4 6 8 9 11 12 12 12 11 12 13 13 13 13 13 12 12 12 11 11 10 10 10 10 10 9 8 8 7 6 6
24 23 21 19 17 16 14 12 10 8 5 3 3 2 5 6 8 9 10 11 11 11 11 12 12 12 12 12 12 12 12 11 11 11 11 10 10 10 9 9 9 9 8 7
26 24 23 22 20 18 16 14 11 10 7 6 4 3 4 6 6 7 9 10 10 10 10 10 11 11 11 12 12 12 11 11 11 12 11 11 11 10 10 10 9 9 9 9
27 26 26 24 22 20 18 14 11 10 9 8 7 5 4 5 6 6 8 9 10 10 9 10 10 10 10 10 11 11 11 11 11 11 11 11 11 11 10 10 11 10 10 10
27 27 27 26 24 22 20 17 15 12 10 10 10 7 6 6 6 6 7 8 9 9 9 10 9 9 9 9 9 10 10 11 10 10 10 11 11 11 11 11 12 12 12 11
27 27 27 27 26 24 22 20 17 15 14 11 11 9 7 7 7 7 7 7 8 9 9 10 9 8 8 8 8 9 9 10 10 10 9 10 11 11 11 11 12 13 13 13
29 28 28 28 27 26 24 21 20 17 15 13 12 10 9 9 8 7 8 8 9 9 9 10 9 8 8 8 8 8 8 9 9 10 9 10 11 12 12 12 12 13 14 14
30 30 29 29 29 27 26 25 23 20 18 15 13 13 12 10 9 9 9 9 9 9 10 9 9 8 8 8 8 8 7 8 8 9 10 10 11 12 12 13 13 13 14 15
31 30 29 30 30 28 27 26 25 23 22 19 16 15 14 12 11 10 10 10 9 10 9 9 9 9 8 8 8 8 7 8 8 9 10 10 12 13 13 13 14 14 14 15
31 31 30 29 30 30 29 28 26 24 22 21 18 16 15 13 12 12 11 11 10 9 10 10 10 10 9 9 8 8 8 8 9 10 10 10 11 13 14 15 16 16 16 15
31 32 31 28 27 28 29 29 28 26 25 23 21 20 18 17 14 14 13 12 12 11 12 11 11 10 10 10 10 9 9 10 10 11 11 12 12 13 15 16 16 17 17 17
31 32 32 31 30 29 29 29 29 29 27 25 23 23 20 19 17 16 16 15 14 14 13 12 12 12 12 11 11 11 11 12 12 12 12 13 13 14 15 16 17 17 18 17
31 31 31 32 31 31 31 30 30 30 30 29 27 25 22 21 20 18 18 18 17 16 16 15 15 15 14 14 14 13 14 14 14 14 15 15 15 15 16 17 18 18 19 19
31 31 31 31 32 31 33 31 31 31 31 30 29 27 25 24 22 21 21 20 19 19 18 18 17 18 17 17 16 16 16 16 16 16 17 17 17 17 18 18 19 20 20 20
32 32 32 31 31 32 32 31 31 31 31 31 31 30 29 27 25 24 23 22 22 21 21 20 20 20 20 19 19 18 18 18 18 18 18 18 18 19 19 20 20 21 22 22
33 32 32 32 31 32 32 32 31 31 31 31 32 31 30 29 27 27 25 24 23 23 22 22 22 22 22 21 21 21 20 20 19 19 19 20 20 20 21 21 21 22 23 23
33 33 33 33 31 30 31 32 31 30 31 31 31 30 30 29 29 27 26 26 25 25 24 24 24 23 22 23 23 23 22 21 21 22 21 21 21 21 22 22 22 23 24 24
33 33 33 34 33 32 33 33 32 32 32 31 31 30 30 30 29 28 27 27 27 26 26 26 25 24 24 24 24 24 24 24 24 23 23 23 23 23 24 24 25 25 26 25
34 34 35 34 33 34 35 34 34 34 33 32 32 31 31 31 30 29 29 28 28 28 28 28 27 26 26 25 25 25 25 26 26 25 26 26 26 27 27 27 27 28 28 27
34 34 34 35 35 35 35 34 34 34 33 33 33 32 32 31 31 31 30 30 30 30 30 31 30 29 28 28 28 28 28 28 27 27 28 28 29 29 30 30 30 30 31 30
34 35 35 35 36 36 36 35 35 35 35 34 34 34 34 33 32 31 31 31 31 32 32 31 32 32 30 30 30 30 30 30 30 30 30 30 31 31 32 32 32 32 31 31
34 34 35 36 36 36 36 36 36 36 36 36 35 35 35 35 34 33 32 32 33 33 33 33 32 32 32 32 32 32 32 33 33 33 33 33 33 33 33 33 33 32 32 32
33 34 34 35 35 36 36 37 37 37 37 36 36 36 36 36 35 34 34 33 33 33 34 34 34 34 33 34 34 34 35 35 35 35 35 34 34 34 34 34 34 34 33 33

GEFSCGP_500_meanwind_216.txt.gz
Wind_Speed
12 10 10 8 6 6 3 2 3 4 5 6 7 10 12 14 16 16 16 15 17 17 17 17 17 16 15 14 13 12 12 11 11 10 10 9 9 8 8 7 7 6 6 6
13 11 9 9 8 7 5 4 4 3 5 5 5 7 9 12 13 14 15 15 15 15 15 16 16 16 15 15 14 13 13 12 12 11 11 10 9 9 8 8 8 7 7 6
14 12 11 10 9 8 7 7 6 4 5 6 6 8 7 9 10 12 14 14 14 14 15 15 15 15 14 14 14 13 13 13 13 12 12 11 11 10 10 10 9 9 8 7
16 14 14 13 13 10 9 8 8 6 6 6 6 9 7 7 9 10 11 12 13 14 15 14 14 14 13 13 14 13 13 13 13 13 12 12 12 12 11 10 10 10 9 9
18 17 16 15 14 12 11 10 9 7 7 7 7 11 8 4 6 8 10 11 12 13 14 14 14 13 12 12 12 12 13 13 13 13 13 12 11 11 11 10 10 10 10 10
19 17 17 16 15 13 13 10 8 8 9 8 6 11 10 7 6 8 7 9 10 12 13 13 13 13 12 11 11 11 11 12 12 12 12 12 12 11 10 10 10 10 10 10
21 20 19 17 16 15 14 11 10 10 11 10 9 9 10 8 6 7 7 7 8 10 11 13 13 13 12 11 10 11 11 11 11 12 12 12 12 11 11 11 11 11 11 11
19 20 19 18 18 17 15 14 14 13 13 11 11 10 9 9 7 6 7 7 8 9 10 12 13 12 11 10 10 10 10 10 11 11 11 12 12 12 12 12 12 12 11 12
19 19 18 19 18 18 17 17 15 16 15 15 13 9 9 10 9 8 9 7 8 8 8 10 11 11 10 10 9 9 10 10 10 11 11 11 12 12 12 12 13 13 13 13
22 20 19 19 20 20 19 17 15 16 16 14 12 11 11 10 7 9 10 9 8 9 8 9 11 11 10 10 10 10 10 10 10 10 11 11 12 12 12 11 12 14 15 15
24 22 20 21 21 20 20 19 19 18 16 14 14 14 12 12 10 8 10 11 9 9 9 8 10 10 9 9 10 10 11 10 10 11 11 12 12 12 12 13 13 14 15 16
28 25 23 23 22 21 21 20 19 19 19 17 16 17 12 10 10 10 10 12 10 10 9 9 9 9 9 9 11 11 11 11 11 11 12 12 13 13 13 13 15 15 16 18
29 29 26 23 23 22 23 22 21 19 19 18 17 19 16 14 11 12 13 13 11 11 10 9 9 10 9 9 10 11 11 11 12 12 12 13 14 15 15 15 16 17 18 18
29 30 29 24 22 22 22 22 23 22 21 20 20 21 19 17 15 14 14 14 13 13 12 11 10 11 11 11 11 11 12 12 12 12 13 13 15 16 16 16 17 18 18 19
30 30 29 27 23 22 22 21 21 22 23 24 23 23 23 20 17 16 17 16 16 16 15 13 12 12 12 12 12 12 12 13 13 13 14 15 15 16 17 18 18 19 19 20
30 30 30 29 27 25 23 23 23 24 23 24 24 24 24 22 22 21 21 21 19 19 17 16 15 15 15 14 14 14 14 15 15 15 15 16 16 17 18 18 19 20 20 21
29 30 30 29 28 26 27 25 24 24 25 26 26 25 23 24 25 25 25 24 21 21 21 20 19 18 18 17 17 17 16 17 17 17 17 17 18 18 19 20 20 21 22 22
30 30 30 29 27 29 28 26 25 24 24 27 28 28 26 27 29 28 28 27 26 24 23 22 23 22 21 21 20 19 19 19 19 19 19 19 20 20 21 21 22 22 23 24
29 29 29 29 28 28 26 27 26 25 27 28 29 29 28 29 30 30 30 29 27 26 26 26 25 24 24 23 23 22 21 21 21 21 22 22 22 22 23 23 23 24 25 26
30 30 29 29 29 28 27 28 27 27 30 30 30 30 30 30 30 31 31 30 29 28 28 27 28 27 26 26 25 25 25 24 24 24 24 24 24 25 25 26 26 27 27 27
30 31 31 30 30 30 30 29 28 30 33 32 33 33 32 33 33 32 31 30 30 29 29 29 29 29 28 28 27 27 26 26 26 26 26 26 26 27 27 28 28 28 29 29
29 30 30 31 31 32 32 31 31 31 32 32 33 33 33 33 33 33 33 31 31 31 31 31 30 30 29 29 29 29 28 27 27 27 28 27 28 28 29 29 29 29 30 31
28 29 29 30 31 33 34 34 32 33 33 33 33 33 34 34 33 33 33 33 33 33 32 32 31 31 32 32 31 31 30 29 29 29 29 29 30 30 30 30 30 31 32 33
30 30 32 33 34 33 32 33 33 33 34 36 36 36 36 36 35 35 35 35 35 34 34 33 33 33 33 33 32 32 32 31 30 30 31 31 31 32 32 33 33 33 33 34
30 31 32 34 35 35 34 34 34 34 35 36 36 36 36 36 36 36 37 36 36 36 35 34 34 35 34 34 33 33 33 34 33 33 33 33 34 34 34 34 35 35 36 35
33 33 32 34 36 37 38 37 36 36 36 36 36 35 36 37 37 38 37 37 37 37 36 35 35 35 35 35 35 35 35 35 34 35 35 36 36 36 36 37 38 38 38 37

GEFSCGP_500_meanwind_222.txt.gz
Wind_Speed
18 17 14 9 6 4 2 1 2 3 6 8 8 8 9 10 12 13 14 14 15 16 16 15 15 16 15 15 15 15 14 14 13 11 11 10 10 10 9 9 8 8 7 6
19 17 14 11 7 6 4 1 1 3 5 7 7 7 8 8 10 11 12 13 13 14 14 14 14 14 15 14 14 14 14 14 14 13 11 11 10 9 9 9 9 8 7 6
19 17 16 14 10 8 5 4 3 5 7 8 7 5 6 6 7 9 11 11 11 12 13 12 12 13 14 14 14 13 14 14 14 13 13 12 11 9 9 9 9 9 8 7
20 18 18 16 13 10 7 6 7 9 10 8 7 8 7 5 6 7 8 8 9 11 11 11 10 11 13 13 13 13 13 14 14 13 13 13 13 11 10 9 10 9 9 8
21 20 19 17 14 12 10 9 9 10 10 11 10 10 8 4 5 5 6 6 8 9 10 10 9 10 12 12 12 12 13 13 13 13 13 13 13 12 11 10 10 9 9 9
23 21 20 18 16 15 12 11 12 13 13 13 12 11 10 7 5 3 4 4 5 7 9 9 10 10 11 11 11 11 12 12 12 12 12 12 12 12 11 10 10 10 10 9
24 23 20 19 18 17 15 15 15 15 15 13 13 12 10 8 5 3 2 2 3 4 6 7 8 8 9 9 9 10 10 10 11 11 11 11 11 11 10 10 9 9 10 10
26 24 21 20 19 17 17 16 16 15 15 14 15 12 9 8 6 4 2 2 1 3 5 6 6 6 7 7 8 8 9 9 9 9 10 10 10 10 10 10 9 9 9 10
26 24 22 21 19 17 18 18 16 16 15 15 15 13 10 8 7 5 2 2 1 2 3 4 4 4 4 5 6 7 7 7 8 8 8 8 9 9 10 10 10 10 10 10
26 25 23 22 21 19 18 18 18 17 16 15 15 14 10 8 8 6 3 3 2 1 1 1 2 2 3 4 5 5 5 6 6 6 7 7 8 8 8 9 10 10 11 12
26 26 24 24 25 21 19 19 20 18 17 16 15 14 11 9 8 6 5 4 2 1 1 1 1 1 2 2 3 3 4 5 6 6 7 8 8 8 8 9 9 10 11 12
28 27 26 26 25 23 20 20 20 20 19 18 17 15 12 11 10 7 6 5 4 3 3 3 2 2 3 2 2 3 4 5 5 6 6 7 7 8 8 9 10 11 12 13
29 29 27 26 26 25 24 21 20 20 21 20 19 17 15 13 12 9 8 8 7 6 7 5 3 2 3 3 3 4 4 5 6 6 6 7 8 8 9 10 11 11 12 13
28 29 29 28 27 27 26 25 24 23 23 22 21 19 17 16 14 12 12 11 10 9 9 7 6 5 5 5 5 4 6 6 7 7 7 8 9 10 11 12 12 13 14 14
28 30 29 29 29 29 28 27 26 25 24 24 23 21 20 19 16 16 15 14 13 13 11 10 9 8 8 7 7 7 7 8 9 9 9 9 9 11 13 14 14 15 15 15
29 30 30 30 31 31 30 28 28 27 26 25 25 25 24 22 21 21 20 18 16 15 15 15 14 13 11 11 11 10 10 11 11 12 12 11 12 12 13 15 15 16 16 16
31 31 31 31 32 32 32 31 30 29 28 28 28 27 25 24 22 23 22 21 20 19 18 17 16 16 15 14 14 14 14 14 14 14 15 15 14 15 15 16 16 16 17 18
31 31 31 31 32 33 31 31 32 32 30 30 30 29 28 25 25 23 23 21 21 19 18 18 18 18 18 17 18 18 18 18 18 18 18 18 17 17 17 18 18 18 19 19
32 31 31 31 32 33 32 32 32 33 32 32 31 30 27 26 27 26 24 23 22 20 19 19 20 21 21 21 21 21 22 21 21 21 20 20 20 20 20 21 20 20 21 21
34 34 33 32 32 32 32 32 32 32 32 32 31 29 28 27 28 27 26 25 24 23 22 22 22 22 23 23 24 24 24 24 24 24 24 23 23 23 23 23 23 23 23 24
33 34 34 33 33 33 32 31 30 31 31 29 30 30 29 29 28 27 28 28 28 26 26 26 25 25 26 26 26 26 26 26 27 27 27 27 27 26 26 26 25 25 26 27
31 32 33 33 34 33 32 32 31 31 30 30 30 29 29 29 29 29 30 29 29 29 29 29 28 28 29 29 28 28 29 29 29 30 30 29 29 28 29 29 29 28 28 29
30 31 32 32 32 32 32 32 32 33 33 33 32 32 31 31 32 32 33 33 32 31 31 32 31 30 30 31 31 31 31 31 31 31 32 32 31 31 31 32 31 31 30 30
31 31 32 32 31 32 32 32 33 34 34 34 35 35 33 33 34 35 34 34 33 33 33 33 33 33 32 32 32 33 33 33 33 33 33 33 33 32 33 33 32 32 32 32
32 32 32 32 31 31 31 31 32 32 32 34 35 35 35 36 36 36 35 35 34 33 33 34 35 34 34 34 34 34 34 33 33 33 33 33 34 34 34 33 33 34 34 34
32 32 32 32 31 31 31 32 32 32 32 34 35 35 36 37 37 36 37 36 36 35 35 36 36 36 36 36 35 35 35 34 34 33 33 34 34 34 34 34 35 36 35 35

GEFSCGP_500_meanwind_228.txt.gz
Wind_Speed
18 17 14 12 9 7 5 3 1 2 4 5 7 8 8 9 10 11 12 12 12 12 12 12 12 12 12 12 11 11 11 10 10 10 9 9 9 8 8 7 7 6 5 4
20 18 15 13 12 10 8 6 5 4 4 4 6 7 7 8 8 9 10 10 10 10 11 11 11 11 12 11 11 11 10 10 11 10 10 10 9 8 8 8 7 6 5 4
21 19 18 17 14 12 10 9 8 7 6 5 5 6 8 8 8 8 8 9 9 9 9 10 9 10 10 10 10 10 10 10 11 11 11 10 10 10 9 8 8 7 6 5
23 22 21 19 17 15 12 11 11 9 8 7 7 7 7 9 7 7 7 7 7 7 7 8 8 8 8 9 9 9 9 10 10 10 11 10 10 10 9 8 8 8 7 6
25 23 22 21 18 17 15 13 12 11 11 10 9 9 8 7 6 6 6 6 6 5 5 7 7 7 7 7 8 9 9 9 9 10 10 10 9 9 9 8 8 7 7 7
28 26 24 22 20 18 17 15 15 14 14 12 11 10 8 6 6 6 6 6 5 4 4 5 6 6 6 7 7 7 8 8 8 8 9 8 9 9 9 9 8 7 7 6
29 28 26 24 22 20 19 18 17 16 15 13 12 11 7 6 6 6 6 5 5 4 3 3 4 5 5 5 5 6 6 6 6 7 7 7 7 7 7 8 7 7 7 7
29 29 27 25 23 22 20 19 18 18 16 15 15 14 11 9 8 7 7 6 6 5 4 3 3 2 3 3 3 3 4 4 4 5 5 5 5 5 6 6 6 6 6 6
30 29 27 26 24 23 23 21 20 19 18 18 17 15 14 12 11 9 8 8 7 7 6 5 4 3 2 1 2 2 2 2 2 2 2 2 3 3 4 4 5 5 6 6
31 30 28 27 26 25 24 23 21 21 20 20 19 17 16 14 11 10 8 8 8 8 8 7 7 5 4 3 2 2 2 2 2 1 1 2 2 3 5 4 5 5 6 6
30 31 30 29 29 27 26 25 23 22 21 21 20 18 15 14 13 11 9 9 9 9 9 8 8 7 6 5 5 5 4 4 3 3 3 3 4 4 4 5 6 7 7 8
30 31 31 30 30 29 28 27 25 24 22 22 21 18 16 15 13 12 11 10 10 11 10 10 10 8 8 7 7 7 7 6 5 5 5 5 6 6 5 6 7 8 8 9
30 31 31 32 31 31 30 29 28 26 24 23 21 18 17 15 14 14 13 13 13 12 11 11 10 10 9 8 8 8 8 8 7 7 7 7 8 8 8 8 8 9 10 11
29 30 30 31 31 30 30 30 29 27 25 24 22 19 17 16 16 16 15 14 13 12 11 11 11 11 11 10 10 9 10 10 10 9 10 10 10 10 10 10 11 12 12 12
29 29 29 28 30 31 30 30 29 28 27 26 24 22 19 18 18 18 18 17 15 13 12 12 12 13 13 13 13 13 13 13 13 12 12 12 12 12 12 12 13 14 14 14
28 28 28 27 28 30 31 32 31 30 29 28 26 24 23 21 20 19 18 17 17 15 15 16 15 15 16 16 16 16 15 15 15 15 14 14 14 13 13 14 15 15 16 16
29 28 27 28 27 28 31 31 31 31 30 29 28 26 24 24 22 20 20 19 19 19 19 19 18 18 18 18 18 18 18 18 18 18 18 16 16 16 16 17 18 18 18 19
31 30 29 29 29 30 29 29 30 31 31 30 29 27 26 25 24 23 22 22 22 22 21 20 20 20 21 21 21 21 21 21 21 20 19 19 19 20 20 21 21 21 22 22
32 32 31 31 31 31 29 28 28 29 30 30 29 28 27 27 27 26 24 23 23 23 23 23 23 23 23 23 24 24 24 24 22 22 22 22 23 23 24 24 24 24 24 24
32 32 32 31 31 31 28 28 28 29 29 29 29 29 28 29 28 27 27 26 26 26 26 25 24 25 26 26 26 26 27 27 25 25 25 25 26 26 26 27 27 27 27 27
32 33 32 32 32 31 29 28 28 29 28 29 29 29 29 30 31 31 30 28 27 27 26 27 27 27 28 28 28 29 29 29 29 28 28 28 29 29 29 30 30 30 30 30
33 33 32 32 33 32 30 30 29 29 29 29 29 30 30 30 31 31 30 29 28 28 28 29 29 30 30 30 31 31 31 31 31 30 30 31 31 31 32 32 32 32 33 33
32 32 32 32 32 31 30 30 30 30 31 30 30 30 31 31 31 31 31 31 31 31 30 30 31 32 32 33 33 32 32 32 32 32 33 33 34 34 33 33 33 33 33 33
31 32 32 32 31 31 30 31 31 31 31 32 32 32 32 33 33 33 33 33 32 32 32 32 33 33 34 34 34 34 33 32 33 33 33 34 35 35 34 33 33 33 32 32
30 30 31 31 31 31 31 31 31 30 30 31 32 33 34 35 34 35 35 34 33 33 33 34 34 34 35 35 35 35 35 35 33 33 33 33 34 34 34 33 33 33 33 34
30 30 31 31 31 31 32 32 31 31 31 31 31 32 34 34 34 35 35 34 34 34 35 35 35 35 36 35 35 35 35 35 34 34 33 33 33 33 33 33 33 34 35 35

GEFSCGP_500_meanwind_234.txt.gz
Wind_Speed
15 13 12 11 9 8 5 3 3 4 4 5 7 8 10 10 11 11 11 11 11 11 10 10 10 10 10 9 9 8 7 7 7 7 7 7 7 6 6 5 5 5 4 4
17 16 15 14 12 10 7 5 5 5 5 5 6 7 8 9 10 10 10 11 10 10 10 10 9 9 9 9 9 8 7 7 7 7 7 7 7 6 6 5 5 4 4 4
19 18 18 16 13 11 9 7 7 6 5 6 6 6 7 8 8 9 10 10 10 9 8 9 9 8 8 8 8 7 7 7 7 6 7 7 7 7 7 6 5 5 4 4
23 22 20 17 15 12 11 10 9 7 6 7 6 6 8 8 8 8 9 9 8 8 8 8 8 8 7 7 7 7 7 6 6 6 6 6 7 7 6 6 6 5 5 4
25 24 22 20 17 15 14 12 11 10 8 8 8 7 8 7 7 7 8 7 7 7 7 7 7 7 6 6 6 6 5 6 6 6 6 5 6 6 6 6 5 5 5 5
28 26 24 22 20 18 16 14 13 12 10 10 10 8 7 7 7 7 7 7 6 7 7 6 6 6 6 5 5 5 4 5 5 5 5 5 4 5 5 5 5 4 4 4
30 28 27 24 22 21 18 15 13 12 12 12 12 10 9 8 7 7 7 7 7 7 6 6 6 6 5 4 4 4 3 3 4 4 4 4 3 3 3 4 4 3 3 3
29 29 28 27 25 22 20 18 16 14 13 13 14 11 10 9 8 8 7 7 7 7 7 7 6 6 5 4 3 3 2 2 3 3 3 2 3 3 2 2 2 2 3 3
28 28 27 27 26 24 22 21 18 16 15 14 14 14 11 10 9 9 9 9 8 8 8 8 7 6 6 5 4 4 3 3 3 4 3 2 3 3 3 3 2 2 3 3
30 29 28 28 27 26 24 21 20 18 16 15 14 14 13 12 11 10 10 10 10 10 9 9 8 8 7 6 6 5 4 4 4 4 4 4 4 4 4 4 4 4 5 5
30 29 28 28 28 26 25 23 21 20 19 16 16 15 15 14 12 11 11 11 12 11 10 10 9 9 9 8 7 7 7 7 6 6 5 6 5 5 5 5 5 6 7 7
31 30 28 28 28 27 26 24 23 22 21 19 17 17 16 15 13 13 12 12 12 12 12 11 11 11 11 10 9 9 9 9 8 8 7 7 7 7 7 7 7 9 9 10
31 31 30 28 29 29 29 27 25 23 22 21 19 17 17 16 14 14 14 13 13 12 13 12 12 12 12 12 11 11 11 11 11 10 10 10 9 9 10 10 10 11 12 12
30 31 30 28 27 27 29 29 28 26 24 23 22 19 18 18 16 15 15 15 14 14 15 15 14 14 13 13 13 12 13 12 12 12 12 12 12 12 13 13 13 14 14 14
30 31 30 29 28 27 28 28 28 28 27 25 23 21 20 19 17 16 16 16 17 16 16 17 16 15 14 14 14 14 14 15 15 15 15 15 14 14 15 15 16 16 16 16
30 31 30 30 29 28 29 29 28 28 28 28 26 24 22 21 20 19 18 18 19 19 18 17 17 17 16 16 17 17 17 17 18 17 17 18 17 18 18 18 18 18 18 17
30 30 29 28 28 29 30 29 29 29 28 27 26 26 24 23 22 21 20 21 21 21 19 19 19 19 19 19 19 19 20 20 21 20 20 21 20 21 21 21 21 20 20 20
29 29 29 28 28 29 28 28 29 29 28 28 28 26 25 24 23 22 21 21 21 21 21 21 21 21 21 22 22 22 23 23 23 24 24 24 24 24 24 24 24 23 23 22
28 28 28 28 28 28 28 28 28 29 29 28 28 27 26 24 24 24 23 23 24 24 24 23 23 23 23 24 24 25 26 26 27 26 26 26 26 27 28 27 26 25 26 25
28 28 28 28 27 27 28 28 27 28 30 29 29 29 28 27 26 26 25 25 26 26 26 26 26 26 26 26 26 27 27 27 28 28 28 29 29 30 30 29 29 28 28 28
28 28 28 28 27 28 30 27 26 27 28 27 28 29 29 29 29 28 27 28 28 29 29 29 29 28 28 28 28 29 29 29 29 30 30 31 31 31 31 30 30 30 30 30
28 27 28 27 27 28 28 27 27 28 27 27 27 28 29 29 29 29 30 30 31 31 32 32 31 31 31 31 31 30 31 31 31 32 32 32 32 33 32 32 32 32 33 33
29 29 29 29 29 28 27 26 27 27 28 28 28 29 29 30 31 31 32 33 33 33 34 34 34 34 34 33 33 33 33 33 33 33 33 33 33 34 35 34 34 34 34 35
29 30 30 30 30 29 28 28 29 28 28 29 29 30 30 32 32 33 34 33 34 35 35 35 35 35 35 35 35 35 35 35 35 34 34 35 35 35 36 35 35 35 36 35
29 29 30 30 29 29 29 29 29 29 29 29 29 30 31 31 32 33 33 33 34 35 36 35 36 36 36 36 36 36 37 37 37 37 37 37 36 36 37 37 37 37 37 37
28 29 29 30 30 29 28 27 28 29 29 29 29 29 30 30 32 33 33 33 34 35 36 36 36 37 37 37 37 37 38 38 38 38 38 38 37 37 38 38 38 38 38 38

GEFSCGP_500_meanwind_240.txt.gz
Wind_Speed
12 9 7 5 6 8 6 3 4 4 4 6 8 8 10 12 14 14 15 15 15 14 13 13 13 12 12 12 11 11 10 10 10 9 8 7 7 6 5 5 5 3 3 2
14 12 9 8 10 10 6 4 4 5 5 6 7 8 7 9 13 13 13 13 13 13 12 12 12 12 12 12 12 11 10 10 9 9 9 8 7 7 6 6 5 4 3 3
16 12 11 12 12 10 7 8 8 8 8 7 8 9 7 7 9 12 12 12 12 12 11 11 11 11 11 11 11 11 10 10 9 9 8 8 7 7 6 6 5 5 4 4
17 15 15 15 12 12 11 11 10 10 9 8 9 13 12 7 8 10 11 11 11 11 10 10 10 10 10 10 10 10 10 9 9 8 7 7 7 6 6 6 6 6 6 5
20 18 19 18 16 15 15 13 12 12 10 10 10 12 14 10 7 9 10 10 11 10 10 9 9 9 9 9 9 9 9 9 8 8 7 6 6 6 5 5 5 5 5 5
22 21 21 19 18 18 16 15 14 13 11 11 11 11 13 11 9 9 9 10 10 9 9 9 8 8 8 8 8 8 8 8 8 7 7 6 5 5 4 5 4 4 4 4
24 24 22 20 19 19 17 16 16 14 13 14 12 11 14 15 10 9 10 10 10 9 9 9 8 8 8 8 8 8 7 7 7 7 6 6 5 4 4 4 4 4 4 4
24 25 23 22 22 21 19 18 18 17 15 15 13 12 12 12 11 12 12 11 11 10 10 9 8 8 8 8 7 7 7 7 7 6 6 5 5 4 4 4 4 4 4 4
24 24 23 24 23 22 21 20 18 18 17 16 16 14 12 11 11 12 13 12 12 12 11 11 10 8 8 8 8 7 7 7 6 6 6 6 4 4 5 5 4 4 4 5
25 24 24 24 24 25 24 21 20 19 18 19 18 18 14 13 12 12 13 13 13 13 13 12 11 10 9 9 9 8 8 8 7 7 7 6 6 5 5 6 5 5 5 5
27 26 23 24 25 24 24 23 21 20 19 19 19 19 16 14 13 14 13 13 14 15 15 13 12 11 11 11 10 10 8 8 8 8 8 8 8 8 7 7 7 7 7 8
29 27 25 25 25 23 23 22 22 22 22 21 20 20 18 16 14 14 13 14 15 15 15 14 13 13 13 12 11 11 10 9 10 10 10 10 10 9 9 8 8 9 9 10
30 30 28 25 25 24 24 23 23 23 22 23 23 25 20 18 16 15 15 15 16 16 16 15 14 14 14 14 13 12 11 11 12 11 11 11 11 10 10 10 10 10 11 11
32 32 30 26 24 23 24 24 24 24 23 24 24 24 21 18 17 17 17 17 17 17 17 17 17 15 15 15 15 14 13 13 13 13 13 13 13 13 12 13 13 13 13 14
32 31 31 29 25 23 24 25 24 25 25 25 26 26 24 22 20 19 19 18 18 18 18 19 18 17 17 17 17 17 15 15 15 15 15 15 15 15 15 15 15 15 15 16
32 32 33 32 28 25 25 24 23 23 23 25 28 28 27 25 23 22 21 20 19 19 19 20 19 19 19 19 19 19 18 18 17 18 18 18 18 18 18 18 18 18 18 18
31 31 32 31 29 27 29 26 25 24 24 25 26 27 29 26 24 24 23 21 21 21 22 23 22 21 20 20 20 20 20 20 20 20 20 21 21 21 21 21 21 21 21 21
30 30 30 29 28 29 29 25 25 25 26 27 28 30 30 26 25 25 24 23 23 23 23 22 21 22 22 22 21 21 22 22 22 22 22 23 24 24 23 24 24 23 24 24
29 30 29 29 28 28 28 27 27 28 29 29 29 30 30 28 27 27 25 24 24 24 24 23 23 24 25 25 24 24 25 25 25 25 25 25 26 26 26 26 26 26 27 27
29 30 29 28 27 27 27 27 27 27 30 29 29 30 31 29 28 27 27 27 26 25 25 25 25 25 26 27 27 27 27 27 28 28 27 27 28 28 28 28 29 29 29 29
28 29 29 29 28 27 27 28 28 28 28 29 29 30 31 29 29 28 29 28 28 27 27 27 27 27 28 28 29 29 29 29 30 30 30 30 31 30 30 30 31 31 32 32
26 27 29 29 28 29 29 29 31 31 29 29 28 29 30 30 28 28 30 30 29 29 29 29 29 29 30 31 31 32 32 32 33 32 33 33 33 32 32 32 32 33 34 34
27 27 28 29 29 31 30 30 31 31 30 30 30 29 29 29 30 29 29 30 30 30 30 31 32 32 32 32 32 33 33 34 34 33 33 34 34 34 34 34 34 34 35 35
27 28 29 30 32 31 32 30 30 30 29 29 30 29 28 28 29 30 30 30 30 31 31 32 32 33 34 34 33 33 34 34 34 34 34 35 35 35 35 36 36 36 36 36
27 28 30 31 33 33 31 30 29 30 30 29 29 29 29 29 29 29 30 30 31 32 33 33 33 34 35 35 35 35 36 36 35 35 35 35 35 36 36 37 37 37 37 37
29 29 29 31 31 32 32 30 31 31 31 31 31 31 31 30 30 31 32 32 32 33 34 34 35 36 36 36 37 37 37 37 37 36 36 36 37 37 37 38 38 38 37 38

GEFSCGP_500_meanwind_246.txt.gz
Wind_Speed
16 15 13 10 8 6 5 3 3 4 4 5 7 7 9 9 10 11 12 12 13 13 13 14 14 14 14 13 13 13 12 11 10 9 8 8 7 6 6 6 6 6 5 5
19 17 14 12 11 8 6 4 4 5 6 5 5 7 7 7 8 10 11 11 11 11 11 12 13 13 13 12 12 12 12 11 10 9 9 7 7 6 6 6 6 5 5 5
19 17 17 15 12 9 7 6 6 6 7 5 5 7 7 5 7 8 9 9 9 9 10 10 11 11 11 12 12 11 11 10 10 9 8 7 6 6 5 5 5 5 5 4
20 20 19 17 14 11 9 8 8 9 11 8 6 7 6 5 5 6 7 7 8 8 8 9 9 9 10 10 10 11 11 10 10 9 8 7 7 6 5 5 5 5 5 5
22 21 20 19 15 13 11 11 11 10 11 10 7 8 7 6 5 6 7 6 5 6 7 7 7 7 8 9 9 9 9 9 9 8 8 7 6 6 5 5 5 5 5 5
23 22 21 19 17 15 14 14 14 12 12 12 9 10 9 7 6 6 6 6 5 5 6 6 6 5 6 6 7 8 8 8 8 7 7 6 6 5 5 4 4 4 4 4
25 24 23 21 21 19 17 17 17 16 15 14 11 12 11 9 7 5 5 5 4 4 5 5 5 5 4 5 6 6 6 6 6 6 6 5 4 4 4 3 3 3 3 3
26 25 24 22 22 21 19 19 19 19 18 14 13 13 10 10 8 6 6 5 4 3 4 5 5 5 4 5 4 4 4 4 5 5 4 4 3 3 2 1 1 1 1 1
26 24 23 22 22 22 22 22 20 20 20 18 16 14 12 11 10 10 10 8 6 5 4 4 5 5 5 5 5 4 5 5 4 4 4 3 3 2 2 1 1 1 1 2
26 25 24 24 24 24 23 23 22 22 21 21 19 17 15 12 11 11 12 10 7 6 5 5 5 5 6 6 6 5 5 5 5 5 4 3 3 4 3 3 3 3 3 4
29 28 26 26 27 26 26 25 25 23 22 22 22 19 16 13 12 12 11 10 9 8 7 6 6 6 7 7 7 7 6 6 6 6 6 5 5 5 5 4 4 5 5 6
29 29 29 28 27 26 26 27 25 25 25 25 25 21 17 16 13 13 12 11 8 8 9 8 8 8 8 9 9 9 9 9 8 7 7 6 6 7 7 7 6 7 8 8
29 30 29 29 28 28 27 26 26 27 27 26 26 23 20 19 17 15 14 12 10 10 11 10 10 9 11 11 11 11 11 11 10 10 9 9 8 9 9 9 9 10 11 11
29 31 31 31 29 27 27 27 28 28 28 27 26 23 21 21 18 17 16 14 14 13 13 12 12 12 12 13 14 13 13 13 12 12 12 12 11 11 12 11 12 12 13 13
31 31 31 31 30 29 29 29 28 27 28 28 27 25 22 21 19 18 17 16 16 15 15 14 14 15 15 14 14 14 14 14 14 14 15 14 14 14 14 14 14 15 15 16
32 33 32 32 31 30 29 29 27 26 27 28 27 26 24 22 21 21 20 19 18 17 16 16 17 17 16 16 15 16 16 16 16 16 16 16 16 16 16 16 16 17 17 17
32 33 33 33 32 32 32 30 29 29 28 27 28 27 25 26 24 23 23 22 20 19 18 17 18 19 18 17 17 17 18 18 18 18 18 18 19 19 20 20 20 20 19 19
31 32 33 33 33 34 30 30 30 30 29 29 28 27 26 25 26 24 24 25 23 22 21 20 20 19 18 19 20 20 19 20 21 21 21 21 22 23 23 23 23 23 23 22
32 32 32 32 33 34 32 30 29 30 31 30 28 28 28 26 26 26 25 25 25 25 23 23 23 22 21 22 22 22 22 22 22 22 23 24 24 25 25 25 25 25 25 25
31 32 32 33 33 33 32 31 31 31 32 30 29 29 28 28 28 27 25 25 25 24 24 24 23 23 23 24 24 23 24 24 25 25 26 27 27 27 27 27 28 28 28 28
32 32 33 33 33 33 31 32 31 32 32 31 31 30 29 29 28 27 26 26 25 25 25 26 25 24 24 25 25 26 26 26 27 27 27 28 28 28 28 29 29 30 30 31
31 32 32 32 33 32 30 31 31 32 32 31 31 30 29 28 27 26 25 26 26 26 26 26 25 25 25 25 26 26 27 28 28 28 28 29 29 30 30 30 30 31 32 33
32 31 31 31 31 30 30 30 30 31 32 31 29 29 27 26 26 26 26 26 26 27 27 28 28 27 27 28 28 27 27 28 29 30 30 30 31 31 31 31 32 33 33 34
30 30 30 30 30 30 30 29 30 31 31 30 29 29 27 27 26 25 26 26 26 27 29 29 29 28 29 30 30 29 29 29 29 30 31 32 32 32 33 33 34 34 34 34
29 29 29 29 29 30 29 29 29 29 30 30 28 27 27 26 25 25 25 26 27 28 28 28 29 29 30 30 30 30 30 30 31 31 32 33 34 34 34 34 34 34 35 35
29 27 28 29 29 30 30 30 29 28 28 28 29 29 28 26 25 24 25 26 27 28 29 29 29 30 30 30 31 32 32 32 32 32 33 34 34 34 34 35 35 35 36 36